M I D A S
Marine Information and Data Acquisition System
Tripno 2167 of the Zeeleeuw from 2011-08-19 07:27:30 to 2011-08-19 15:53:17
Back to CruiseResearch ActivitiesStationsMapUnderway DataData graphs

EquipmentUnitsComment
TimeDGPSUTC
LatitudeDGPSDM.mWGS84
LongitudeDGPSDM.mWGS84
TemperatureSBE03/SBE38deg celciusITS90
ConductivitySBE21S/mITS90
SalinitySBE21 Practical Salinity Units
ChlorophylAChelsea fluorimeterg/lCalibrated in Aceton
Missing or incorrect values are displayed as -999
Sea surface data collected by the RV Zeeleeuw from 2011-08-19 07:08:29 to 2011-08-19 15:54:02
                                                                                    Next 1000 lines
Time Latitude Longitude Temperature Conductivity Salinity ChlorophylA
2011-08-19 07:08:39 51°13.638 2°56.019 22.2128 0.013101 0.0709 -3.020363
2011-08-19 07:08:44 51°13.638 2°56.019 22.2243 0.013101 0.0709 -3.020363
2011-08-19 07:08:48 51°13.638 2°56.019 22.2178 0.013101 0.0709 -3.020363
2011-08-19 07:08:54 51°13.637 2°56.019 22.23 0.013101 0.0709 -3.020363
2011-08-19 07:08:58 51°13.636 2°56.018 22.2077 0.012998 0.070378 -3.020363
2011-08-19 07:09:03 51°13.635 2°56.018 22.2058 0.013101 0.0709 -3.020363
2011-08-19 07:09:08 51°13.635 2°56.018 22.2048 0.013101 0.0709 -3.020363
2011-08-19 07:09:12 51°13.635 2°56.018 22.2037 0.013101 0.070901 -3.020363
2011-08-19 07:09:17 51°13.636 2°56.018 22.1977 0.013101 0.070901 -3.020363
2011-08-19 07:09:23 51°13.636 2°56.019 22.198 0.013101 0.070901 -3.020363
2011-08-19 07:09:27 51°13.636 2°56.019 22.1954 0.013101 0.070901 -3.020363
2011-08-19 07:09:32 51°13.636 2°56.019 22.1964 0.013101 0.070901 -3.020363
2011-08-19 07:09:37 51°13.636 2°56.019 22.1972 0.013101 0.070901 -3.020363
2011-08-19 07:09:42 51°13.637 2°56.019 22.2148 0.013101 0.070901 -3.020363
2011-08-19 07:09:46 51°13.637 2°56.019 22.209 0.013101 0.070901 -3.020363
2011-08-19 07:09:52 51°13.637 2°56.019 22.2051 0.013101 0.070901 -3.020363
2011-08-19 07:09:56 51°13.637 2°56.019 22.2002 0.013101 0.070902 -3.020363
2011-08-19 07:10:01 51°13.637 2°56.019 22.2011 0.013101 0.070901 -3.020363
2011-08-19 07:10:07 51°13.637 2°56.019 22.2039 0.013101 0.070901 -3.020363
2011-08-19 07:10:11 51°13.636 2°56.019 22.2026 0.013101 0.070901 -3.020363
2011-08-19 07:10:16 51°13.635 2°56.019 22.2085 0.013101 0.070901 -3.020363
2011-08-19 07:10:22 51°13.635 2°56.018 22.213 0.013101 0.070901 -3.020363
2011-08-19 07:10:27 51°13.635 2°56.018 22.2054 0.013101 0.070901 -3.020363
2011-08-19 07:10:31 51°13.634 2°56.018 22.1923 0.013101 0.070902 -3.020363
2011-08-19 07:10:36 51°13.634 2°56.018 22.1923 0.013101 0.070902 -3.020363
2011-08-19 07:10:42 51°13.635 2°56.017 22.1947 0.013101 0.070902 -3.020363
2011-08-19 07:10:47 51°13.635 2°56.016 22.1921 0.013101 0.070902 -3.020363
2011-08-19 07:10:52 51°13.635 2°56.015 22.0951 0.012998 0.070379 -3.020363
2011-08-19 07:10:56 51°13.635 2°56.013 22.1567 0.012998 0.07038 -3.020363
2011-08-19 07:11:02 51°13.636 2°56.009 22.1451 0.013101 0.070902 -3.020363
2011-08-19 07:11:06 51°13.637 2°56.006 22.1952 0.013101 0.070902 -3.020363
2011-08-19 07:11:12 51°13.638 2°56.001 22.1874 0.013101 0.070902 -3.020363
2011-08-19 07:11:19 51°13.641 2°55.993 22.1907 0.013101 0.070902 -3.020363
2011-08-19 07:11:24 51°13.643 2°55.987 22.2006 0.013101 0.070902 -3.020363
2011-08-19 07:11:29 51°13.645 2°55.981 22.2119 0.012998 0.07038 -3.020363
2011-08-19 07:11:34 51°13.647 2°55.974 22.2034 0.012998 0.07038 -3.020363
2011-08-19 07:11:41 51°13.65 2°55.964 22.1947 0.012998 0.07038 -3.020363
2011-08-19 07:11:46 51°13.652 2°55.956 22.1993 0.013101 0.070902 -3.020363
2011-08-19 07:11:50 51°13.654 2°55.95 22.2039 0.013101 0.070902 -3.020363
2011-08-19 07:11:55 51°13.657 2°55.942 22.2118 0.012998 0.07038 -3.020363
2011-08-19 07:12:00 51°13.659 2°55.933 22.1902 0.012998 0.07038 -3.020363
2011-08-19 07:12:05 51°13.662 2°55.924 22.1999 0.012998 0.07038 -3.020363
2011-08-19 07:12:10 51°13.665 2°55.915 22.2009 0.013101 0.070902 -3.020363
2011-08-19 07:12:15 51°13.668 2°55.906 22.2082 0.012998 0.07038 -3.020363
2011-08-19 07:12:20 51°13.671 2°55.896 22.2063 0.012998 0.07038 -3.020363
2011-08-19 07:12:25 51°13.673 2°55.887 22.2068 0.013101 0.070902 -3.020363
2011-08-19 07:12:30 51°13.676 2°55.878 22.2074 0.012998 0.070379 -3.020363
2011-08-19 07:12:35 51°13.679 2°55.868 22.2094 0.012998 0.07038 -3.020363
2011-08-19 07:12:40 51°13.681 2°55.859 22.2156 0.012998 0.070379 -3.020363
2011-08-19 07:12:46 51°13.684 2°55.847 22.2117 0.012998 0.070379 -3.020363
2011-08-19 07:12:51 51°13.687 2°55.838 22.2182 0.012998 0.070379 -3.020363
2011-08-19 07:12:55 51°13.689 2°55.83 22.214 0.012998 0.070378 -3.020363
2011-08-19 07:13:00 51°13.691 2°55.82 22.219 0.012998 0.070378 -3.020363
2011-08-19 07:13:06 51°13.694 2°55.809 22.2142 0.012998 0.070379 -3.020363
2011-08-19 07:13:10 51°13.695 2°55.801 22.2342 0.012998 0.070378 -3.020363
2011-08-19 07:13:15 51°13.697 2°55.792 22.2297 0.012998 0.070378 -3.020363
2011-08-19 07:13:21 51°13.698 2°55.782 22.2193 0.012998 0.070378 -3.020363
2011-08-19 07:13:26 51°13.699 2°55.775 22.2255 0.012998 0.070377 -3.020363
2011-08-19 07:13:30 51°13.7 2°55.769 22.2325 0.012998 0.070377 -3.020363
2011-08-19 07:13:35 51°13.701 2°55.761 22.2199 0.012998 0.070377 -3.020363
2011-08-19 07:13:40 51°13.702 2°55.755 22.2179 0.012998 0.070377 -3.020363
2011-08-19 07:13:44 51°13.703 2°55.749 22.2168 0.012998 0.070376 -3.020363
2011-08-19 07:13:50 51°13.704 2°55.742 22.2115 0.012998 0.070376 -3.020363
2011-08-19 07:13:55 51°13.704 2°55.736 22.2124 0.012998 0.070376 -3.020363
2011-08-19 07:14:01 51°13.705 2°55.73 22.2173 0.012998 0.070376 -3.020363
2011-08-19 07:14:04 51°13.706 2°55.728 22.2252 0.012998 0.070375 -3.020363
2011-08-19 07:14:10 51°13.706 2°55.723 22.2242 0.012998 0.070375 -3.020363
2011-08-19 07:14:14 51°13.706 2°55.721 22.2401 0.012998 0.070374 -3.020363
2011-08-19 07:14:19 51°13.706 2°55.72 22.2288 0.012998 0.070374 -3.020363
2011-08-19 07:14:25 51°13.706 2°55.719 22.2347 0.012998 0.070375 -3.020363
2011-08-19 07:14:29 51°13.707 2°55.72 22.2365 0.012998 0.070374 -3.020363
2011-08-19 07:14:34 51°13.707 2°55.721 22.2488 0.012998 0.070374 -3.020363
2011-08-19 07:14:39 51°13.707 2°55.722 22.2397 0.012998 0.070373 -3.020363
2011-08-19 07:14:44 51°13.708 2°55.724 22.2314 0.012998 0.070374 -3.020363
2011-08-19 07:14:48 51°13.708 2°55.726 22.1949 0.012998 0.070374 -3.020363
2011-08-19 07:14:53 51°13.709 2°55.728 22.2327 0.012998 0.070374 -3.020363
2011-08-19 07:14:58 51°13.71 2°55.729 22.2416 0.012998 0.070378 -3.020363
2011-08-19 07:15:04 51°13.711 2°55.731 22.2664 0.012998 0.070382 -3.020363
2011-08-19 07:15:09 51°13.711 2°55.732 22.261 0.012998 0.070375 -3.020363
2011-08-19 07:15:15 51°13.712 2°55.734 22.2795 0.012998 0.07037 -3.020363
2011-08-19 07:15:20 51°13.712 2°55.737 22.3083 0.012998 0.07037 -3.020363
2011-08-19 07:15:24 51°13.713 2°55.739 22.308 0.012998 0.07037 -3.020363
2011-08-19 07:15:29 51°13.716 2°55.742 22.3261 0.012998 0.070369 -3.020363
2011-08-19 07:15:34 51°13.719 2°55.746 22.2762 0.012998 0.07037 -3.020363
2011-08-19 07:15:40 51°13.723 2°55.749 22.2284 0.012998 0.070369 -3.020363
2011-08-19 07:15:44 51°13.726 2°55.751 22.2131 0.012998 0.070369 -3.020363
2011-08-19 07:15:49 51°13.729 2°55.753 22.1941 0.012998 0.070369 -3.020363
2011-08-19 07:15:55 51°13.732 2°55.755 22.1909 0.012998 0.070369 -3.020363
2011-08-19 07:16:00 51°13.734 2°55.757 22.1736 0.012998 0.070369 -3.020363
2011-08-19 07:16:05 51°13.735 2°55.757 22.2108 0.012998 0.070369 -3.020363
2011-08-19 07:16:10 51°13.736 2°55.758 22.1468 0.012998 0.070369 -3.020363
2011-08-19 07:16:15 51°13.735 2°55.758 22.1598 0.012998 0.070369 -3.020363
2011-08-19 07:16:20 51°13.735 2°55.758 22.2133 0.012998 0.070369 -3.020363
2011-08-19 07:16:25 51°13.733 2°55.758 22.2261 0.012998 0.070369 -3.020363
2011-08-19 07:16:31 51°13.731 2°55.757 22.2191 0.012998 0.070368 -3.020363
2011-08-19 07:16:35 51°13.729 2°55.757 22.205 0.012998 0.070368 -3.020363
2011-08-19 07:16:41 51°13.726 2°55.756 22.221 0.012998 0.070368 -3.020363
2011-08-19 07:16:45 51°13.724 2°55.756 22.2304 0.012998 0.070368 -3.020363
2011-08-19 07:16:50 51°13.72 2°55.755 22.2367 0.012998 0.070368 -3.020363
2011-08-19 07:16:55 51°13.717 2°55.754 22.2321 0.012998 0.070368 -3.020363
2011-08-19 07:17:00 51°13.714 2°55.753 22.2354 0.012998 0.070367 -3.020363
2011-08-19 07:17:05 51°13.711 2°55.752 22.2398 0.012998 0.070367 -3.020363
2011-08-19 07:17:11 51°13.709 2°55.751 22.2505 0.012998 0.070367 -3.020363
2011-08-19 07:17:15 51°13.709 2°55.751 22.2762 0.012998 0.070367 -3.020363
2011-08-19 07:17:20 51°13.709 2°55.75 22.2775 0.012998 0.070367 -3.020363
2011-08-19 07:17:25 51°13.711 2°55.749 22.2886 0.012998 0.070367 -3.020363
2011-08-19 07:17:30 51°13.714 2°55.748 22.2963 0.012998 0.070367 -3.020363
2011-08-19 07:17:35 51°13.717 2°55.746 22.2968 0.012998 0.070367 -3.020363
2011-08-19 07:17:40 51°13.721 2°55.743 22.2805 0.012998 0.070368 -3.020363
2011-08-19 07:17:45 51°13.726 2°55.739 22.2823 0.012998 0.070367 -3.020363
2011-08-19 07:17:51 51°13.733 2°55.732 22.2565 0.012998 0.070367 -3.020363
2011-08-19 07:17:55 51°13.738 2°55.728 22.2537 0.012998 0.070368 -3.020363
2011-08-19 07:18:00 51°13.746 2°55.721 22.2332 0.012998 0.070368 -3.020363
2011-08-19 07:18:04 51°13.752 2°55.715 22.2394 0.012998 0.070368 -3.020363
2011-08-19 07:18:09 51°13.76 2°55.708 22.2196 0.012998 0.070367 -3.020363
2011-08-19 07:18:14 51°13.768 2°55.701 22.2416 0.012998 0.070367 -3.020363
2011-08-19 07:18:20 51°13.778 2°55.691 22.2066 0.012998 0.070367 -3.020363
2011-08-19 07:18:25 51°13.787 2°55.683 22.208 0.012998 0.070367 -3.020363
2011-08-19 07:18:30 51°13.796 2°55.675 22.2023 0.012998 0.070368 -3.020363
2011-08-19 07:18:34 51°13.803 2°55.668 22.1962 0.012998 0.070368 -3.020363
2011-08-19 07:18:39 51°13.812 2°55.66 22.1952 0.012998 0.070368 -3.020363
2011-08-19 07:18:44 51°13.823 2°55.652 22.2193 0.012998 0.070368 -3.020363
2011-08-19 07:18:49 51°13.833 2°55.644 22.2014 0.012998 0.070368 -3.020363
2011-08-19 07:18:54 51°13.843 2°55.636 22.2231 0.012998 0.070368 -3.020363
2011-08-19 07:19:00 51°13.856 2°55.626 22.2208 0.012998 0.070369 -3.020363
2011-08-19 07:19:04 51°13.865 2°55.62 22.259 0.012998 0.070369 -3.020363
2011-08-19 07:19:08 51°13.874 2°55.613 22.2218 0.012998 0.070369 -3.020363
2011-08-19 07:19:13 51°13.885 2°55.604 22.2264 0.012998 0.070369 -3.020363
2011-08-19 07:19:18 51°13.896 2°55.596 22.2308 0.012998 0.070369 -3.020363
2011-08-19 07:19:23 51°13.908 2°55.587 22.2541 0.012998 0.07037 -3.020363
2011-08-19 07:19:28 51°13.92 2°55.578 22.1907 0.012998 0.07037 -3.020363
2011-08-19 07:19:34 51°13.934 2°55.568 22.2308 0.012998 0.07037 -3.020363
2011-08-19 07:19:38 51°13.943 2°55.561 22.2446 0.012998 0.07037 -3.020363
2011-08-19 07:19:43 51°13.954 2°55.552 22.2346 0.012998 0.07037 -3.020363
2011-08-19 07:19:48 51°13.966 2°55.543 22.2271 0.012998 0.07037 -3.020363
2011-08-19 07:19:52 51°13.975 2°55.536 22.2359 0.012998 0.07037 -3.020363
2011-08-19 07:19:57 51°13.986 2°55.528 22.2241 0.012998 0.07037 -3.020363
2011-08-19 07:20:04 51°14.002 2°55.516 22.2465 0.012998 0.07037 -3.020363
2011-08-19 07:20:08 51°14.011 2°55.509 22.2401 0.012998 0.07037 -3.020363
2011-08-19 07:20:13 51°14.023 2°55.5 22.2608 0.012998 0.070371 -3.020363
2011-08-19 07:20:18 51°14.034 2°55.492 22.2333 0.012998 0.070371 -3.020363
2011-08-19 07:20:24 51°14.048 2°55.481 22.2249 0.012998 0.070373 -3.020363
2011-08-19 07:20:28 51°14.057 2°55.475 22.265 0.012998 0.070371 -3.020363
2011-08-19 07:20:33 51°14.069 2°55.466 22.2537 0.012998 0.070371 -3.020363
2011-08-19 07:20:39 51°14.083 2°55.455 22.2466 0.012998 0.070371 -3.020363
2011-08-19 07:20:44 51°14.095 2°55.446 22.2682 0.012998 0.070372 -3.020363
2011-08-19 07:20:50 51°14.109 2°55.435 22.2274 0.012998 0.070372 -3.020363
2011-08-19 07:20:54 51°14.118 2°55.428 22.2709 0.012998 0.070372 -3.020363
2011-08-19 07:20:59 51°14.13 2°55.418 22.2687 0.012998 0.070373 -3.020363
2011-08-19 07:21:04 51°14.142 2°55.408 22.2257 0.012998 0.070373 -3.020363
2011-08-19 07:21:09 51°14.154 2°55.398 22.2822 0.012998 0.070373 -3.020363
2011-08-19 07:21:15 51°14.168 2°55.386 22.2626 0.012998 0.070373 -3.020363
2011-08-19 07:21:20 51°14.18 2°55.375 22.2377 0.012998 0.070373 -3.020363
2011-08-19 07:21:24 51°14.189 2°55.367 22.2158 0.012998 0.070373 -3.020363
2011-08-19 07:21:29 51°14.201 2°55.356 22.243 0.012998 0.070374 -3.020363
2011-08-19 07:21:35 51°14.215 2°55.344 22.2373 0.012998 0.070374 -3.020363
2011-08-19 07:21:40 51°14.227 2°55.333 22.2752 0.012998 0.070374 -3.020363
2011-08-19 07:21:44 51°14.237 2°55.325 22.2336 0.012998 0.070374 -3.020363
2011-08-19 07:21:51 51°14.253 2°55.309 22.272 0.012998 0.070374 -3.020363
2011-08-19 07:21:56 51°14.265 2°55.298 22.2359 0.012998 0.070374 -3.020363
2011-08-19 07:22:00 51°14.275 2°55.289 22.2666 0.012998 0.070375 -3.020363
2011-08-19 07:22:04 51°14.284 2°55.28 22.2556 0.012998 0.070375 -3.020363
2011-08-19 07:22:10 51°14.298 2°55.266 22.2302 0.012998 0.070375 -3.020363
2011-08-19 07:22:16 51°14.313 2°55.252 22.2632 0.012998 0.070375 -3.020363
2011-08-19 07:22:21 51°14.325 2°55.241 22.2554 0.012998 0.070375 -3.020363
2011-08-19 07:22:25 51°14.335 2°55.231 22.2717 0.012998 0.070375 -3.020363
2011-08-19 07:22:30 51°14.346 2°55.218 22.241 0.012998 0.070376 -3.020363
2011-08-19 07:22:35 51°14.358 2°55.206 22.2308 0.012998 0.070376 -3.020363
2011-08-19 07:22:41 51°14.371 2°55.191 22.2547 0.012998 0.070375 -3.020363
2011-08-19 07:22:45 51°14.38 2°55.181 22.2466 0.012998 0.070375 -3.020363
2011-08-19 07:22:50 51°14.392 2°55.169 22.244 0.012998 0.070375 -3.020363
2011-08-19 07:22:55 51°14.404 2°55.157 22.2218 0.012998 0.070375 -3.020363
2011-08-19 07:23:00 51°14.417 2°55.145 22.2603 0.012998 0.070376 -3.020363
2011-08-19 07:23:05 51°14.429 2°55.132 22.2698 0.012998 0.070376 -3.020363
2011-08-19 07:23:09 51°14.439 2°55.122 22.2585 0.012998 0.070376 -3.020363
2011-08-19 07:23:14 51°14.451 2°55.11 22.2607 0.012998 0.070376 -3.020363
2011-08-19 07:23:19 51°14.463 2°55.097 22.2487 0.012998 0.070376 -3.020363
2011-08-19 07:23:24 51°14.475 2°55.084 22.2378 0.012998 0.070385 -3.020363
2011-08-19 07:23:29 51°14.488 2°55.072 22.2742 0.012998 0.07038 -3.020363
2011-08-19 07:23:34 51°14.5 2°55.059 22.2122 0.012998 0.070376 -3.020363
2011-08-19 07:23:39 51°14.512 2°55.046 22.2396 0.012998 0.070375 -3.020363
2011-08-19 07:23:43 51°14.522 2°55.035 22.2343 0.012998 0.070375 -3.020363
2011-08-19 07:23:49 51°14.537 2°55.02 22.2336 0.012998 0.070375 -3.020363
2011-08-19 07:23:53 51°14.547 2°55.009 22.2841 0.012998 0.070375 -3.020363
2011-08-19 07:23:58 51°14.559 2°54.995 22.2397 0.012998 0.070376 -3.020363
2011-08-19 07:24:03 51°14.571 2°54.979 22.2252 0.012998 0.070376 -3.020363
2011-08-19 07:24:08 51°14.583 2°54.962 22.1931 0.012998 0.070376 -3.020363
2011-08-19 07:24:13 51°14.596 2°54.948 22.1771 0.012998 0.070377 -3.020363
2011-08-19 07:24:17 51°14.607 2°54.938 22.2153 0.012998 0.070377 -3.020363
2011-08-19 07:24:22 51°14.621 2°54.927 22.2207 0.013101 0.070899 -3.020363
2011-08-19 07:24:27 51°14.636 2°54.917 22.2186 0.012998 0.070377 -3.020363
2011-08-19 07:24:32 51°14.652 2°54.908 22.2079 0.012998 0.070378 -3.020363
2011-08-19 07:24:37 51°14.667 2°54.9 22.2117 0.012998 0.070377 -3.020363
2011-08-19 07:24:41 51°14.68 2°54.895 22.2014 0.012998 0.070377 -3.020363
2011-08-19 07:24:47 51°14.7 2°54.888 22.2184 0.012998 0.070377 -3.020363
2011-08-19 07:24:52 51°14.716 2°54.884 22.1953 0.012998 0.070378 -3.020363
2011-08-19 07:24:57 51°14.732 2°54.881 22.2229 0.013101 0.0709 -3.020363
2011-08-19 07:25:02 51°14.749 2°54.88 22.227 0.012998 0.070378 -3.020363
2011-08-19 07:25:07 51°14.765 2°54.879 22.2155 0.012998 0.070378 -3.020363
2011-08-19 07:25:12 51°14.782 2°54.881 22.2255 0.013101 0.070901 -3.020363
2011-08-19 07:25:17 51°14.798 2°54.882 22.208 0.013101 0.070901 -3.020363
2011-08-19 07:25:22 51°14.814 2°54.886 22.2453 0.013101 0.070902 -3.020363
2011-08-19 07:25:27 51°14.83 2°54.89 22.2278 0.013101 0.070901 -3.020363
2011-08-19 07:25:32 51°14.846 2°54.895 22.2736 0.013101 0.070902 -3.020363
2011-08-19 07:25:37 51°14.861 2°54.901 22.2516 0.013101 0.070902 -3.020363
2011-08-19 07:25:42 51°14.877 2°54.906 22.2693 0.013101 0.070903 -3.020363
2011-08-19 07:25:47 51°14.893 2°54.91 22.2167 0.013101 0.070903 -3.020363
2011-08-19 07:25:52 51°14.909 2°54.916 22.2356 0.013101 0.070904 -3.020363
2011-08-19 07:25:57 51°14.925 2°54.922 22.2288 0.013101 0.070904 -3.020363
2011-08-19 07:26:02 51°14.94 2°54.929 22.2111 0.013101 0.070904 -3.020363
2011-08-19 07:26:07 51°14.956 2°54.937 22.2053 0.013101 0.070904 -3.020363
2011-08-19 07:26:12 51°14.971 2°54.945 22.2289 0.013101 0.070904 -3.020363
2011-08-19 07:26:17 51°14.985 2°54.956 22.2317 0.013101 0.070904 -3.020363
2011-08-19 07:26:22 51°15 2°54.968 22.2424 0.013101 0.070905 -3.020363
2011-08-19 07:26:27 51°15.014 2°54.98 22.2347 0.013101 0.070906 -3.020363
2011-08-19 07:26:32 51°15.028 2°54.992 22.2478 0.013101 0.070906 -3.020363
2011-08-19 07:26:37 51°15.042 2°55.004 22.2298 0.013101 0.070908 -3.020363
2011-08-19 07:26:42 51°15.056 2°55.017 22.2467 0.013101 0.070908 -3.020363
2011-08-19 07:26:47 51°15.069 2°55.031 22.2689 0.013101 0.070908 -3.020363
2011-08-19 07:26:52 51°15.083 2°55.043 22.2558 0.013101 0.070909 -3.020363
2011-08-19 07:26:57 51°15.098 2°55.055 22.2711 0.013101 0.070909 -3.020363
2011-08-19 07:27:02 51°15.112 2°55.067 22.2777 0.013101 0.070911 -3.020363
2011-08-19 07:27:07 51°15.127 2°55.078 22.2878 0.013101 0.070912 -3.020363
2011-08-19 07:27:12 51°15.142 2°55.088 22.269 0.013101 0.070914 -3.020363
2011-08-19 07:27:17 51°15.156 2°55.098 22.2522 0.013101 0.070914 -3.020363
2011-08-19 07:27:21 51°15.169 2°55.105 22.2524 0.013101 0.070914 -3.020363
2011-08-19 07:27:27 51°15.186 2°55.117 22.2426 0.013101 0.070915 -3.020363
2011-08-19 07:27:32 51°15.202 2°55.126 22.2314 0.013101 0.070915 -3.020363
2011-08-19 07:27:37 51°15.217 2°55.136 22.2605 0.013101 0.070916 -3.020363
2011-08-19 07:27:42 51°15.231 2°55.146 22.2586 0.013101 0.070917 -3.020363
2011-08-19 07:27:47 51°15.246 2°55.155 22.2377 0.013101 0.070917 -3.020363
2011-08-19 07:27:52 51°15.261 2°55.166 22.2668 0.013101 0.070918 -3.020363
2011-08-19 07:27:57 51°15.275 2°55.178 22.2621 0.013101 0.070919 -3.020363
2011-08-19 07:28:02 51°15.289 2°55.189 22.2408 0.013101 0.07092 -3.020363
2011-08-19 07:28:07 51°15.304 2°55.2 22.2227 0.013101 0.070921 -3.020363
2011-08-19 07:28:12 51°15.318 2°55.212 22.2404 0.013101 0.070921 -3.020363
2011-08-19 07:28:17 51°15.332 2°55.226 22.2395 0.013101 0.070921 -3.020363
2011-08-19 07:28:21 51°15.342 2°55.237 22.2294 0.013101 0.070922 -3.020363
2011-08-19 07:28:27 51°15.358 2°55.256 22.2209 0.013101 0.070923 -3.020363
2011-08-19 07:28:32 51°15.37 2°55.272 22.2522 0.013101 0.070923 -3.020363
2011-08-19 07:28:37 51°15.381 2°55.29 22.2102 0.013101 0.070924 -3.020363
2011-08-19 07:28:42 51°15.393 2°55.308 22.2145 0.013101 0.070925 -3.020363
2011-08-19 07:28:47 51°15.403 2°55.327 22.2417 0.013101 0.070925 -3.020363
2011-08-19 07:28:52 51°15.413 2°55.347 22.2431 0.013101 0.070925 -3.020363
2011-08-19 07:28:57 51°15.423 2°55.367 22.2583 0.013101 0.070926 -3.020363
2011-08-19 07:29:01 51°15.43 2°55.384 22.3121 0.013101 0.070927 -3.020363
2011-08-19 07:29:07 51°15.441 2°55.409 22.2771 0.013101 0.070928 -3.020363
2011-08-19 07:29:12 51°15.451 2°55.429 22.2972 0.013101 0.070928 -3.020363
2011-08-19 07:29:17 51°15.461 2°55.448 22.246 0.013101 0.070928 -3.020363
2011-08-19 07:29:21 51°15.469 2°55.464 22.2863 0.013101 0.070929 -3.020363
2011-08-19 07:29:27 51°15.482 2°55.487 22.2765 0.013101 0.070929 -3.020363
2011-08-19 07:29:32 51°15.492 2°55.506 22.2695 0.013101 0.07093 -3.020363
2011-08-19 07:29:37 51°15.503 2°55.525 22.2326 0.013101 0.070931 -3.020363
2011-08-19 07:29:42 51°15.513 2°55.544 22.278 0.013101 0.070932 -3.020363
2011-08-19 07:29:47 51°15.524 2°55.563 22.2635 0.013101 0.070932 -3.020363
2011-08-19 07:29:52 51°15.534 2°55.583 22.2741 0.013101 0.070933 -3.020363
2011-08-19 07:29:57 51°15.545 2°55.602 22.2482 0.013101 0.070933 -3.020363
2011-08-19 07:30:02 51°15.555 2°55.622 22.2532 0.013101 0.070934 -3.020363
2011-08-19 07:30:07 51°15.565 2°55.642 22.2285 0.013101 0.070935 -3.020363
2011-08-19 07:30:12 51°15.574 2°55.662 22.2642 0.013101 0.070935 -3.020363
2011-08-19 07:30:17 51°15.583 2°55.683 22.2549 0.013101 0.070935 -3.020363
2011-08-19 07:30:22 51°15.593 2°55.704 22.2881 0.013101 0.070936 -3.020363
2011-08-19 07:30:27 51°15.601 2°55.725 22.2652 0.013101 0.070936 -3.020363
2011-08-19 07:30:32 51°15.611 2°55.745 22.2912 0.013101 0.070937 -3.020363
2011-08-19 07:30:37 51°15.62 2°55.767 22.239 0.013101 0.070937 -3.020363
2011-08-19 07:30:42 51°15.63 2°55.787 22.2759 0.013101 0.070938 -3.020363
2011-08-19 07:30:47 51°15.639 2°55.808 22.2725 0.013101 0.070938 -3.020363
2011-08-19 07:30:52 51°15.648 2°55.828 22.2933 0.013101 0.070938 -3.020363
2011-08-19 07:30:57 51°15.657 2°55.849 22.2679 0.013101 0.070939 -3.020363
2011-08-19 07:31:02 51°15.668 2°55.869 22.2866 0.013101 0.070939 -3.020363
2011-08-19 07:31:07 51°15.677 2°55.889 22.2593 0.013101 0.07094 -3.020363
2011-08-19 07:31:12 51°15.687 2°55.909 22.2704 0.013101 0.070941 -3.020363
2011-08-19 07:31:17 51°15.696 2°55.929 22.2662 0.013101 0.070941 -3.020363
2011-08-19 07:31:22 51°15.706 2°55.949 22.2768 0.013101 0.070941 -3.020363
2011-08-19 07:31:27 51°15.715 2°55.97 22.2818 0.013101 0.070941 -3.020363
2011-08-19 07:31:32 51°15.724 2°55.99 22.3001 0.013101 0.070942 -3.020363
2011-08-19 07:31:37 51°15.734 2°56.01 22.2816 0.013101 0.070942 -3.020363
2011-08-19 07:31:42 51°15.743 2°56.03 22.303 0.013101 0.070943 -3.020363
2011-08-19 07:31:47 51°15.753 2°56.05 22.2899 0.013101 0.070943 -3.020363
2011-08-19 07:31:52 51°15.762 2°56.069 22.3041 0.013101 0.070944 -3.020363
2011-08-19 07:31:57 51°15.773 2°56.088 22.262 0.013101 0.070944 -3.020363
2011-08-19 07:32:02 51°15.783 2°56.108 22.3022 0.013101 0.070945 -3.020363
2011-08-19 07:32:07 51°15.794 2°56.126 22.2681 0.013101 0.070945 -3.020363
2011-08-19 07:32:12 51°15.805 2°56.145 22.2756 0.013101 0.070947 -3.020363
2011-08-19 07:32:17 51°15.815 2°56.164 22.2944 0.013101 0.070947 -3.020363
2011-08-19 07:32:22 51°15.825 2°56.183 22.2619 0.013101 0.070947 -3.020363
2011-08-19 07:32:27 51°15.835 2°56.203 22.2975 0.013101 0.070948 -3.020363
2011-08-19 07:32:32 51°15.845 2°56.223 22.2964 0.013101 0.070948 -3.020363
2011-08-19 07:32:37 51°15.856 2°56.241 22.2874 0.013101 0.070948 -3.020363
2011-08-19 07:32:42 51°15.866 2°56.26 22.3062 0.013101 0.070949 -3.020363
2011-08-19 07:32:47 51°15.877 2°56.279 22.2872 0.013101 0.070949 -3.020363
2011-08-19 07:32:52 51°15.888 2°56.297 22.27 0.013101 0.070949 -3.020363
2011-08-19 07:32:57 51°15.899 2°56.315 22.3033 0.013101 0.070951 -3.020363
2011-08-19 07:33:02 51°15.91 2°56.334 22.2813 0.013101 0.070951 -3.020363
2011-08-19 07:33:07 51°15.92 2°56.352 22.2766 0.013101 0.070951 -3.020363
2011-08-19 07:33:12 51°15.931 2°56.371 22.2939 0.013101 0.070952 -3.020363
2011-08-19 07:33:17 51°15.942 2°56.389 22.2743 0.013101 0.070952 -3.020363
2011-08-19 07:33:22 51°15.951 2°56.409 22.2741 0.013101 0.070953 -3.020363
2011-08-19 07:33:27 51°15.961 2°56.428 22.2745 0.013101 0.070953 -3.020363
2011-08-19 07:33:32 51°15.97 2°56.448 22.2824 0.013101 0.070953 -3.020363
2011-08-19 07:33:37 51°15.979 2°56.469 22.2953 0.013101 0.070954 -3.020363
2011-08-19 07:33:42 51°15.988 2°56.49 22.279 0.013101 0.070955 -3.020363
2011-08-19 07:33:47 51°15.996 2°56.511 22.2926 0.013101 0.070955 -3.020363
2011-08-19 07:33:52 51°16.004 2°56.533 22.2854 0.013101 0.070956 -3.020363
2011-08-19 07:33:57 51°16.012 2°56.555 22.3153 0.013101 0.070956 -3.020363
2011-08-19 07:34:02 51°16.019 2°56.577 22.3261 0.013101 0.070957 -3.020363
2011-08-19 07:34:07 51°16.027 2°56.598 22.3022 0.013101 0.070958 -3.020363
2011-08-19 07:34:12 51°16.036 2°56.619 22.2914 0.013101 0.070959 -3.020363
2011-08-19 07:34:17 51°16.045 2°56.64 22.3025 0.013101 0.070959 -3.020363
2011-08-19 07:34:22 51°16.053 2°56.66 22.3073 0.013101 0.07096 -3.020363
2011-08-19 07:34:27 51°16.062 2°56.681 22.2829 0.013101 0.070961 -3.020363
2011-08-19 07:34:32 51°16.072 2°56.701 22.2824 0.013101 0.070962 -3.020363
2011-08-19 07:34:37 51°16.08 2°56.721 22.2744 0.013101 0.070963 -3.020363
2011-08-19 07:34:42 51°16.088 2°56.743 22.3018 0.013101 0.070963 -3.020363
2011-08-19 07:34:47 51°16.097 2°56.764 22.312 0.013101 0.070963 -3.020363
2011-08-19 07:34:52 51°16.104 2°56.785 22.292 0.013101 0.070964 -3.020363
2011-08-19 07:34:57 51°16.112 2°56.807 22.2812 0.013101 0.070965 -3.020363
2011-08-19 07:35:01 51°16.118 2°56.824 22.3333 0.013101 0.070967 -3.020363
2011-08-19 07:35:07 51°16.127 2°56.85 22.2859 0.013101 0.070967 -3.020363
2011-08-19 07:35:12 51°16.135 2°56.872 22.3085 0.013101 0.070968 -3.020363
2011-08-19 07:35:17 51°16.142 2°56.894 22.3096 0.013101 0.070968 -3.020363
2011-08-19 07:35:22 51°16.15 2°56.915 22.3036 0.013101 0.070969 -3.020363
2011-08-19 07:35:27 51°16.157 2°56.937 22.3111 0.013101 0.070969 -3.020363
2011-08-19 07:35:32 51°16.165 2°56.959 22.3177 0.013101 0.070971 -3.020363
2011-08-19 07:35:37 51°16.173 2°56.981 22.3307 0.013101 0.070972 -3.020363
2011-08-19 07:35:42 51°16.18 2°57.002 22.325 0.013101 0.070973 -3.020363
2011-08-19 07:35:47 51°16.188 2°57.023 22.3333 0.013101 0.070973 -3.020363
2011-08-19 07:35:52 51°16.196 2°57.044 22.3036 0.013101 0.070973 -3.020363
2011-08-19 07:35:57 51°16.205 2°57.065 22.3173 0.013101 0.070974 -3.020363
2011-08-19 07:36:02 51°16.214 2°57.086 22.32 0.013101 0.070975 -3.020363
2011-08-19 07:36:07 51°16.223 2°57.105 22.3089 0.013101 0.070976 -3.020363
2011-08-19 07:36:12 51°16.232 2°57.126 22.3046 0.013101 0.070977 -3.020363
2011-08-19 07:36:17 51°16.24 2°57.147 22.2919 0.013101 0.070977 -3.020363
2011-08-19 07:36:22 51°16.249 2°57.168 22.3056 0.013101 0.070977 -3.020363
2011-08-19 07:36:27 51°16.257 2°57.189 22.302 0.013101 0.070978 -3.020363
2011-08-19 07:36:32 51°16.265 2°57.21 22.3222 0.013101 0.070978 -3.020363
2011-08-19 07:36:37 51°16.272 2°57.232 22.2954 0.013101 0.070978 -3.020363
2011-08-19 07:36:42 51°16.28 2°57.253 22.3376 0.013101 0.070979 -3.020363
2011-08-19 07:36:47 51°16.287 2°57.275 22.3224 0.013101 0.070979 -3.020363
2011-08-19 07:36:52 51°16.294 2°57.296 22.32 0.013101 0.07098 -3.020363
2011-08-19 07:36:57 51°16.302 2°57.318 22.3092 0.013101 0.07098 -3.020363
2011-08-19 07:37:02 51°16.31 2°57.339 22.3236 0.013101 0.070981 -3.020363
2011-08-19 07:37:07 51°16.317 2°57.36 22.3152 0.013101 0.070982 -3.020363
2011-08-19 07:37:12 51°16.324 2°57.382 22.3301 0.013101 0.070983 -3.020363
2011-08-19 07:37:17 51°16.331 2°57.403 22.3266 0.013101 0.070983 -3.020363
2011-08-19 07:37:21 51°16.337 2°57.42 22.3293 0.013101 0.070983 -3.020363
2011-08-19 07:37:27 51°16.347 2°57.446 22.343 0.013101 0.070984 -3.020363
2011-08-19 07:37:32 51°16.356 2°57.466 22.3159 0.013101 0.070984 -3.020363
2011-08-19 07:37:37 51°16.364 2°57.486 22.3379 0.013101 0.070986 -3.020363
2011-08-19 07:37:42 51°16.373 2°57.507 22.3359 0.013101 0.070985 -3.020363
2011-08-19 07:37:47 51°16.382 2°57.527 22.3257 0.013101 0.070985 -3.020363
2011-08-19 07:37:52 51°16.391 2°57.547 22.3276 0.013101 0.070986 -3.020363
2011-08-19 07:37:57 51°16.399 2°57.567 22.2997 0.013101 0.070987 -3.020363
2011-08-19 07:38:02 51°16.408 2°57.588 22.3047 0.013101 0.070987 -3.020363
2011-08-19 07:38:07 51°16.416 2°57.609 22.3112 0.013101 0.070988 -3.020363
2011-08-19 07:38:12 51°16.424 2°57.63 22.3313 0.013101 0.070988 -3.020363
2011-08-19 07:38:17 51°16.431 2°57.652 22.3252 0.013101 0.070988 -3.020363
2011-08-19 07:38:22 51°16.439 2°57.673 22.3199 0.013101 0.070988 -3.020363
2011-08-19 07:38:27 51°16.446 2°57.695 22.3347 0.013101 0.070989 -3.020363
2011-08-19 07:38:32 51°16.454 2°57.716 22.3244 0.013101 0.07099 -3.020363
2011-08-19 07:38:37 51°16.462 2°57.737 22.3305 0.013101 0.07099 -3.020363
2011-08-19 07:38:41 51°16.468 2°57.754 22.3265 0.013101 0.070991 -3.020363
2011-08-19 07:38:47 51°16.477 2°57.78 22.3494 0.013101 0.070991 -3.020363
2011-08-19 07:38:52 51°16.485 2°57.801 22.3341 0.013101 0.070991 -3.020363
2011-08-19 07:38:57 51°16.492 2°57.823 22.3517 0.013101 0.070992 -3.020363
2011-08-19 07:39:02 51°16.5 2°57.844 22.3247 0.013101 0.070991 -3.020363
2011-08-19 07:39:07 51°16.508 2°57.866 22.3252 0.013101 0.070992 -3.020363
2011-08-19 07:39:12 51°16.516 2°57.887 22.3539 0.013101 0.070993 -3.020363
2011-08-19 07:39:17 51°16.524 2°57.908 22.353 0.013101 0.070993 -3.020363
2011-08-19 07:39:22 51°16.532 2°57.929 22.3524 0.013101 0.070993 -3.020363
2011-08-19 07:39:27 51°16.54 2°57.95 22.3513 0.013101 0.070994 -3.020363
2011-08-19 07:39:32 51°16.549 2°57.97 22.3544 0.013101 0.070994 -3.020363
2011-08-19 07:39:37 51°16.558 2°57.99 22.3382 0.013101 0.070995 -3.020363
2011-08-19 07:39:41 51°16.566 2°58.005 22.3456 0.013101 0.070995 -3.020363
2011-08-19 07:39:47 51°16.577 2°58.029 22.347 0.013101 0.070995 -3.020363
2011-08-19 07:39:52 51°16.586 2°58.049 22.3381 0.013101 0.070996 -3.020363
2011-08-19 07:39:57 51°16.595 2°58.069 22.3424 0.013101 0.070996 -3.020363
2011-08-19 07:40:01 51°16.602 2°58.084 22.3507 0.013101 0.070996 -3.020363
2011-08-19 07:40:07 51°16.613 2°58.108 22.3553 0.013101 0.070997 -3.020363
2011-08-19 07:40:12 51°16.623 2°58.128 22.3396 0.013101 0.070997 -3.020363
2011-08-19 07:40:17 51°16.632 2°58.148 22.3504 0.013101 0.070997 -3.020363
2011-08-19 07:40:22 51°16.641 2°58.167 22.3347 0.013101 0.070997 -3.020363
2011-08-19 07:40:27 51°16.65 2°58.188 22.3273 0.013101 0.070998 -3.020363
2011-08-19 07:40:32 51°16.659 2°58.208 22.3328 0.013101 0.070998 -3.020363
2011-08-19 07:40:37 51°16.667 2°58.229 22.327 0.013101 0.070998 -3.020363
2011-08-19 07:40:41 51°16.674 2°58.245 22.3513 0.013101 0.070998 -3.020363
2011-08-19 07:40:47 51°16.683 2°58.271 22.3354 0.013101 0.070998 -3.020363
2011-08-19 07:40:52 51°16.691 2°58.293 22.3512 0.013101 0.070999 -3.020363
2011-08-19 07:40:57 51°16.698 2°58.315 22.3604 0.013101 0.070999 -3.020363
2011-08-19 07:41:02 51°16.705 2°58.336 22.3464 0.013101 0.070999 -3.020363
2011-08-19 07:41:07 51°16.713 2°58.358 22.3478 0.013101 0.071 -3.020363
2011-08-19 07:41:12 51°16.721 2°58.38 22.3688 0.013101 0.071 -3.020363
2011-08-19 07:41:17 51°16.728 2°58.401 22.3581 0.013101 0.071 -3.020363
2011-08-19 07:41:22 51°16.736 2°58.423 22.37 0.013101 0.071 -3.020363
2011-08-19 07:41:27 51°16.744 2°58.444 22.3584 0.013101 0.071001 -3.020363
2011-08-19 07:41:32 51°16.753 2°58.464 22.349 0.013101 0.071001 -3.020363
2011-08-19 07:41:37 51°16.762 2°58.485 22.3652 0.013101 0.071001 -3.020363
2011-08-19 07:41:42 51°16.771 2°58.505 22.3436 0.013101 0.071001 -3.020363
2011-08-19 07:41:47 51°16.781 2°58.524 22.3753 0.013101 0.071001 -3.020363
2011-08-19 07:41:52 51°16.79 2°58.543 22.3405 0.013101 0.071002 -3.020363
2011-08-19 07:41:57 51°16.8 2°58.562 22.3541 0.013101 0.071002 -3.020363
2011-08-19 07:42:01 51°16.808 2°58.578 22.3499 0.013101 0.071003 -3.020363
2011-08-19 07:42:07 51°16.819 2°58.601 22.3622 0.013101 0.071003 -3.020363
2011-08-19 07:42:12 51°16.829 2°58.621 22.3606 0.013101 0.071003 -3.020363
2011-08-19 07:42:17 51°16.838 2°58.641 22.3725 0.013101 0.071003 -3.020363
2011-08-19 07:42:22 51°16.847 2°58.661 22.3547 0.013101 0.071003 -3.020363
2011-08-19 07:42:27 51°16.857 2°58.68 22.374 0.013101 0.071003 -3.020363
2011-08-19 07:42:32 51°16.866 2°58.701 22.3561 0.013101 0.071004 -3.020363
2011-08-19 07:42:37 51°16.875 2°58.722 22.3669 0.013101 0.071004 -3.020363
2011-08-19 07:42:42 51°16.882 2°58.743 22.3739 0.013101 0.071004 -3.020363
2011-08-19 07:42:47 51°16.891 2°58.764 22.3839 0.013101 0.071004 -3.020363
2011-08-19 07:42:52 51°16.899 2°58.785 22.3545 0.013101 0.071004 -3.020363
2011-08-19 07:42:57 51°16.908 2°58.806 22.3713 0.013101 0.071004 -3.020363
2011-08-19 07:43:02 51°16.916 2°58.827 22.3778 0.013101 0.071004 -3.020363
2011-08-19 07:43:07 51°16.924 2°58.848 22.391 0.013101 0.071004 -3.020363
2011-08-19 07:43:12 51°16.933 2°58.868 22.3742 0.013101 0.071004 -3.020363
2011-08-19 07:43:17 51°16.942 2°58.889 22.3611 0.013101 0.071004 -3.020363
2011-08-19 07:43:22 51°16.952 2°58.908 22.386 0.013101 0.071004 -3.020363
2011-08-19 07:43:27 51°16.961 2°58.928 22.3688 0.013101 0.071005 -3.020363
2011-08-19 07:43:32 51°16.97 2°58.948 22.3683 0.013101 0.071005 -3.020363
2011-08-19 07:43:37 51°16.979 2°58.969 22.3695 0.013101 0.071005 -3.020363
2011-08-19 07:43:42 51°16.988 2°58.989 22.3716 0.013101 0.071005 -3.020363
2011-08-19 07:43:47 51°16.996 2°59.01 22.3765 0.013101 0.071005 -3.020363
2011-08-19 07:43:52 51°17.005 2°59.031 22.3768 0.013101 0.071005 -3.020363
2011-08-19 07:43:57 51°17.013 2°59.052 22.4029 0.013101 0.071007 -3.020363
2011-08-19 07:44:02 51°17.022 2°59.073 22.3908 0.013101 0.071009 -3.020363
2011-08-19 07:44:07 51°17.03 2°59.093 22.4073 0.013101 0.071014 -3.020363
2011-08-19 07:44:12 51°17.039 2°59.114 22.3855 0.013101 0.071011 -3.020363
2011-08-19 07:44:17 51°17.048 2°59.134 22.3886 0.013101 0.071011 -3.020363
2011-08-19 07:44:22 51°17.058 2°59.154 22.3771 0.013101 0.071005 -3.020363
2011-08-19 07:44:27 51°17.067 2°59.175 22.4031 0.013101 0.071015 -3.020363
2011-08-19 07:44:32 51°17.076 2°59.194 22.3795 0.013101 0.071019 -3.020363
2011-08-19 07:44:37 51°17.086 2°59.214 22.3768 0.013101 0.071011 -3.020363
2011-08-19 07:44:42 51°17.095 2°59.234 22.3655 0.013101 0.071003 -3.020363
2011-08-19 07:44:47 51°17.104 2°59.254 22.3528 0.013101 0.071003 -3.020363
2011-08-19 07:44:52 51°17.113 2°59.275 22.3801 0.013101 0.071002 -3.020363
2011-08-19 07:44:57 51°17.121 2°59.296 22.3953 0.013101 0.071002 -3.020363
2011-08-19 07:45:02 51°17.129 2°59.318 22.3723 0.013101 0.071003 -3.020363
2011-08-19 07:45:07 51°17.137 2°59.339 22.3938 0.013101 0.071004 -3.020363
2011-08-19 07:45:12 51°17.145 2°59.361 22.3954 0.013101 0.071004 -3.020363
2011-08-19 07:45:17 51°17.153 2°59.382 22.3946 0.013101 0.071004 -3.020363
2011-08-19 07:45:22 51°17.161 2°59.404 22.3844 0.013101 0.071005 -3.020363
2011-08-19 07:45:27 51°17.169 2°59.426 22.4043 0.013101 0.071006 -3.020363
2011-08-19 07:45:32 51°17.177 2°59.447 22.378 0.013101 0.071006 -3.020363
2011-08-19 07:45:37 51°17.185 2°59.468 22.4248 0.013101 0.071007 -3.020363
2011-08-19 07:45:42 51°17.193 2°59.489 22.3838 0.013101 0.071007 -3.020363
2011-08-19 07:45:47 51°17.201 2°59.51 22.4072 0.013101 0.071007 -3.020363
2011-08-19 07:45:52 51°17.21 2°59.531 22.3955 0.013101 0.071008 -3.020363
2011-08-19 07:45:57 51°17.219 2°59.552 22.3842 0.013101 0.071008 -3.020363
2011-08-19 07:46:02 51°17.228 2°59.572 22.4043 0.013101 0.071008 -3.020363
2011-08-19 07:46:07 51°17.237 2°59.592 22.4081 0.013101 0.071009 -3.020363
2011-08-19 07:46:12 51°17.246 2°59.612 22.417 0.013101 0.071009 -3.020363
2011-08-19 07:46:17 51°17.256 2°59.631 22.3998 0.013101 0.071009 -3.020363
2011-08-19 07:46:21 51°17.263 2°59.647 22.3977 0.013101 0.071009 -3.020363
2011-08-19 07:46:27 51°17.274 2°59.671 22.4073 0.013101 0.071009 -3.020363
2011-08-19 07:46:32 51°17.284 2°59.691 22.3987 0.013101 0.071009 -3.020363
2011-08-19 07:46:37 51°17.294 2°59.71 22.3889 0.013101 0.071009 -3.020363
2011-08-19 07:46:41 51°17.301 2°59.726 22.4092 0.013101 0.07101 -3.020363
2011-08-19 07:46:47 51°17.312 2°59.75 22.3981 0.013101 0.07101 -3.020363
2011-08-19 07:46:52 51°17.321 2°59.77 22.4187 0.013101 0.07101 -3.020363
2011-08-19 07:46:57 51°17.33 2°59.79 22.3925 0.013101 0.071009 -3.020363
2011-08-19 07:47:02 51°17.339 2°59.81 22.4211 0.013101 0.07101 -3.020363
2011-08-19 07:47:07 51°17.348 2°59.831 22.3989 0.013101 0.07101 -3.020363
2011-08-19 07:47:12 51°17.357 2°59.851 22.4161 0.013101 0.07101 -3.020363
2011-08-19 07:47:17 51°17.366 2°59.872 22.4078 0.013101 0.07101 -3.020363
2011-08-19 07:47:21 51°17.373 2°59.887 22.412 0.013101 0.07101 -3.020363
2011-08-19 07:47:27 51°17.384 2°59.912 22.4288 0.013101 0.07101 -3.020363
2011-08-19 07:47:32 51°17.393 2°59.932 22.4167 0.013101 0.07101 -3.020363
2011-08-19 07:47:37 51°17.402 2°59.953 22.4131 0.013101 0.071011 -3.020363
2011-08-19 07:47:42 51°17.411 2°59.973 22.4135 0.013101 0.07101 -3.020363
2011-08-19 07:47:47 51°17.42 2°59.993 22.4066 0.013101 0.07101 -3.020363
2011-08-19 07:47:52 51°17.429 3°0.014 22.4063 0.013101 0.07101 -3.020363
2011-08-19 07:47:57 51°17.437 3°0.035 22.3992 0.013101 0.071011 -3.020363
2011-08-19 07:48:02 51°17.445 3°0.056 22.4158 0.013101 0.071011 -3.020363
2011-08-19 07:48:07 51°17.453 3°0.078 22.4235 0.013101 0.07101 -3.020363
2011-08-19 07:48:12 51°17.46 3°0.099 22.404 0.013101 0.071014 -3.020363
2011-08-19 07:48:17 51°17.467 3°0.122 22.4414 0.013101 0.071014 -3.020363
2011-08-19 07:48:22 51°17.474 3°0.143 22.4174 0.013101 0.071022 -3.020363
2011-08-19 07:48:27 51°17.482 3°0.165 22.4533 0.013101 0.071019 -3.020363
2011-08-19 07:48:32 51°17.489 3°0.187 22.4134 0.013101 0.07102 -3.020363
2011-08-19 07:48:37 51°17.496 3°0.209 22.4307 0.013101 0.071026 -3.020363
2011-08-19 07:48:42 51°17.504 3°0.231 22.434 0.013101 0.071018 -3.020363
2011-08-19 07:48:47 51°17.511 3°0.253 22.4344 0.013101 0.071018 -3.020363
2011-08-19 07:48:52 51°17.519 3°0.275 22.4168 0.013101 0.071006 -3.020363
2011-08-19 07:48:57 51°17.526 3°0.296 22.4243 0.013101 0.071004 -3.020363
2011-08-19 07:49:02 51°17.534 3°0.318 22.4204 0.013101 0.07101 -3.020363
2011-08-19 07:49:07 51°17.541 3°0.34 22.4113 0.013101 0.071011 -3.020363
2011-08-19 07:49:12 51°17.549 3°0.362 22.4458 0.013101 0.071006 -3.020363
2011-08-19 07:49:17 51°17.556 3°0.383 22.4194 0.013101 0.071006 -3.020363
2011-08-19 07:49:22 51°17.564 3°0.405 22.4315 0.013101 0.071005 -3.020363
2011-08-19 07:49:27 51°17.571 3°0.426 22.4079 0.013101 0.071006 -3.020363
2011-08-19 07:49:32 51°17.58 3°0.447 22.423 0.013101 0.071007 -3.020363
2011-08-19 07:49:37 51°17.587 3°0.469 22.4421 0.013101 0.071008 -3.020363
2011-08-19 07:49:42 51°17.595 3°0.49 22.4414 0.013101 0.071009 -3.020363
2011-08-19 07:49:47 51°17.602 3°0.512 22.4225 0.013101 0.071009 -3.020363
2011-08-19 07:49:52 51°17.61 3°0.533 22.4465 0.013101 0.071009 -3.020363
2011-08-19 07:49:57 51°17.618 3°0.555 22.4315 0.013101 0.07101 -3.020363
2011-08-19 07:50:02 51°17.626 3°0.576 22.4432 0.013101 0.07101 -3.020363
2011-08-19 07:50:07 51°17.634 3°0.597 22.4315 0.013101 0.07101 -3.020363
2011-08-19 07:50:12 51°17.642 3°0.618 22.4353 0.013101 0.071011 -3.020363
2011-08-19 07:50:17 51°17.65 3°0.639 22.4501 0.013101 0.071011 -3.020363
2011-08-19 07:50:22 51°17.659 3°0.66 22.4544 0.013101 0.071011 -3.020363
2011-08-19 07:50:27 51°17.667 3°0.68 22.438 0.013101 0.071011 -3.020363
2011-08-19 07:50:32 51°17.677 3°0.7 22.4367 0.013101 0.071011 -3.020363
2011-08-19 07:50:37 51°17.686 3°0.72 22.4498 0.013101 0.071011 -3.020363
2011-08-19 07:50:42 51°17.696 3°0.739 22.4529 0.013101 0.071012 -3.020363
2011-08-19 07:50:47 51°17.705 3°0.759 22.4502 0.013101 0.071012 -3.020363
2011-08-19 07:50:52 51°17.715 3°0.778 22.4459 0.013101 0.071012 -3.020363
2011-08-19 07:50:57 51°17.725 3°0.797 22.4653 0.013101 0.071012 -3.020363
2011-08-19 07:51:01 51°17.732 3°0.813 22.4378 0.013101 0.071012 -3.020363
2011-08-19 07:51:07 51°17.745 3°0.835 22.4494 0.013101 0.071012 -3.020363
2011-08-19 07:51:12 51°17.754 3°0.854 22.4511 0.013101 0.071013 -3.020363
2011-08-19 07:51:17 51°17.764 3°0.873 22.445 0.013101 0.071013 -3.020363
2011-08-19 07:51:22 51°17.774 3°0.893 22.446 0.013101 0.071013 -3.020363
2011-08-19 07:51:27 51°17.784 3°0.912 22.459 0.013101 0.071013 -3.020363
2011-08-19 07:51:32 51°17.794 3°0.931 22.4344 0.013101 0.071013 -3.020363
2011-08-19 07:51:37 51°17.803 3°0.95 22.4447 0.013101 0.071013 -3.020363
2011-08-19 07:51:42 51°17.812 3°0.97 22.4479 0.013101 0.071013 -3.020363
2011-08-19 07:51:47 51°17.822 3°0.99 22.455 0.013101 0.071013 -3.020363
2011-08-19 07:51:52 51°17.831 3°1.009 22.4441 0.013101 0.071014 -3.020363
2011-08-19 07:51:57 51°17.84 3°1.029 22.4499 0.013101 0.071014 -3.020363
2011-08-19 07:52:02 51°17.849 3°1.05 22.4271 0.013101 0.071014 -3.020363
2011-08-19 07:52:07 51°17.857 3°1.071 22.4434 0.013101 0.071014 -3.020363
2011-08-19 07:52:12 51°17.865 3°1.092 22.4514 0.013101 0.071014 -3.020363
2011-08-19 07:52:17 51°17.873 3°1.114 22.4492 0.013101 0.071014 -3.020363
2011-08-19 07:52:22 51°17.881 3°1.135 22.4541 0.013101 0.071015 -3.020363
2011-08-19 07:52:27 51°17.888 3°1.157 22.448 0.013101 0.071014 -3.020363
2011-08-19 07:52:32 51°17.895 3°1.179 22.4606 0.013101 0.071015 -3.020363
2011-08-19 07:52:37 51°17.901 3°1.2 22.4479 0.013101 0.071015 -3.020363
2011-08-19 07:52:42 51°17.91 3°1.222 22.4754 0.013101 0.071015 -3.020363
2011-08-19 07:52:47 51°17.917 3°1.243 22.4707 0.013101 0.071015 -3.020363
2011-08-19 07:52:52 51°17.926 3°1.264 22.474 0.013101 0.071015 -3.020363
2011-08-19 07:52:57 51°17.934 3°1.285 22.478 0.013101 0.071016 -3.020363
2011-08-19 07:53:01 51°17.941 3°1.301 22.4797 0.013101 0.071016 -3.020363
2011-08-19 07:53:07 51°17.952 3°1.325 22.4453 0.013101 0.071016 -3.020363
2011-08-19 07:53:12 51°17.961 3°1.345 22.4661 0.013101 0.071017 -3.020363
2011-08-19 07:53:17 51°17.969 3°1.365 22.4599 0.013101 0.071017 -3.020363
2011-08-19 07:53:22 51°17.979 3°1.385 22.4606 0.013101 0.071016 -3.020363
2011-08-19 07:53:27 51°17.988 3°1.404 22.4684 0.013101 0.071017 -3.020363
2011-08-19 07:53:32 51°17.998 3°1.423 22.4596 0.013101 0.071017 -3.020363
2011-08-19 07:53:37 51°18.008 3°1.442 22.4635 0.013101 0.071017 -3.020363
2011-08-19 07:53:42 51°18.017 3°1.462 22.4626 0.013101 0.071017 -3.020363
2011-08-19 07:53:47 51°18.026 3°1.482 22.4461 0.013101 0.071017 -3.020363
2011-08-19 07:53:52 51°18.035 3°1.502 22.4528 0.013101 0.071017 -3.020363
2011-08-19 07:53:57 51°18.044 3°1.523 22.4636 0.013101 0.071017 -3.020363
2011-08-19 07:54:02 51°18.052 3°1.544 22.4518 0.013101 0.071017 -3.020363
2011-08-19 07:54:07 51°18.06 3°1.565 22.4799 0.013101 0.071017 -3.020363
2011-08-19 07:54:12 51°18.067 3°1.586 22.4574 0.013101 0.071016 -3.020363
2011-08-19 07:54:17 51°18.075 3°1.608 22.4758 0.013101 0.071016 -3.020363
2011-08-19 07:54:22 51°18.082 3°1.629 22.4856 0.013101 0.071016 -3.020363
2011-08-19 07:54:27 51°18.09 3°1.65 22.4859 0.013101 0.071016 -3.020363
2011-08-19 07:54:32 51°18.098 3°1.672 22.4704 0.013101 0.071016 -3.020363
2011-08-19 07:54:37 51°18.105 3°1.693 22.4779 0.013101 0.071016 -3.020363
2011-08-19 07:54:42 51°18.113 3°1.714 22.4877 0.013101 0.071016 -3.020363
2011-08-19 07:54:47 51°18.121 3°1.736 22.4919 0.013101 0.071016 -3.020363
2011-08-19 07:54:52 51°18.129 3°1.757 22.4908 0.013101 0.071016 -3.020363
2011-08-19 07:54:57 51°18.138 3°1.777 22.4784 0.013101 0.071016 -3.020363
2011-08-19 07:55:02 51°18.147 3°1.797 22.4842 0.013101 0.071015 -3.020363
2011-08-19 07:55:07 51°18.157 3°1.817 22.4724 0.013101 0.071016 -3.020363
2011-08-19 07:55:12 51°18.166 3°1.836 22.4831 0.013101 0.071015 -3.020363
2011-08-19 07:55:17 51°18.175 3°1.856 22.475 0.013101 0.071015 -3.020363
2011-08-19 07:55:22 51°18.186 3°1.875 22.4902 0.013101 0.071015 -3.020363
2011-08-19 07:55:27 51°18.194 3°1.895 22.4752 0.013101 0.071016 -3.020363
2011-08-19 07:55:32 51°18.204 3°1.914 22.4795 0.013101 0.071015 -3.020363
2011-08-19 07:55:37 51°18.213 3°1.934 22.4886 0.013101 0.071015 -3.020363
2011-08-19 07:55:42 51°18.223 3°1.953 22.4763 0.013101 0.071014 -3.020363
2011-08-19 07:55:47 51°18.232 3°1.973 22.507 0.013101 0.071014 -3.020363
2011-08-19 07:55:52 51°18.242 3°1.993 22.4836 0.013101 0.071015 -3.020363
2011-08-19 07:55:57 51°18.251 3°2.012 22.4938 0.013101 0.071014 -3.020363
2011-08-19 07:56:02 51°18.261 3°2.032 22.4797 0.013101 0.071014 -3.020363
2011-08-19 07:56:07 51°18.27 3°2.051 22.4774 0.013101 0.071014 -3.020363
2011-08-19 07:56:12 51°18.279 3°2.071 22.4766 0.013101 0.071014 -3.020363
2011-08-19 07:56:17 51°18.288 3°2.091 22.4997 0.013101 0.071014 -3.020363
2011-08-19 07:56:22 51°18.297 3°2.111 22.4874 0.013101 0.071013 -3.020363
2011-08-19 07:56:27 51°18.306 3°2.131 22.501 0.013101 0.071013 -3.020363
2011-08-19 07:56:32 51°18.315 3°2.151 22.5067 0.013101 0.071013 -3.020363
2011-08-19 07:56:37 51°18.324 3°2.171 22.4906 0.013101 0.071013 -3.020363
2011-08-19 07:56:42 51°18.334 3°2.19 22.4823 0.013101 0.071013 -3.020363
2011-08-19 07:56:47 51°18.343 3°2.21 22.4806 0.013101 0.071013 -3.020363
2011-08-19 07:56:52 51°18.352 3°2.229 22.4988 0.013101 0.071012 -3.020363
2011-08-19 07:56:57 51°18.362 3°2.249 22.4826 0.013101 0.071012 -3.020363
2011-08-19 07:57:02 51°18.371 3°2.269 22.5075 0.013101 0.071012 -3.020363
2011-08-19 07:57:07 51°18.38 3°2.289 22.5013 0.013101 0.071012 -3.020363
2011-08-19 07:57:12 51°18.389 3°2.308 22.4935 0.013101 0.071012 -3.020363
2011-08-19 07:57:17 51°18.397 3°2.329 22.4995 0.013101 0.071012 -3.020363
2011-08-19 07:57:22 51°18.406 3°2.349 22.4756 0.013101 0.071011 -3.020363
2011-08-19 07:57:27 51°18.414 3°2.37 22.494 0.013101 0.071011 -3.020363
2011-08-19 07:57:32 51°18.421 3°2.392 22.4973 0.013101 0.071011 -3.020363
2011-08-19 07:57:37 51°18.428 3°2.414 22.4972 0.013101 0.071011 -3.020363
2011-08-19 07:57:41 51°18.433 3°2.432 22.4962 0.013101 0.071011 -3.020363
2011-08-19 07:57:47 51°18.441 3°2.459 22.5052 0.013101 0.071011 -3.020363
2011-08-19 07:57:52 51°18.445 3°2.481 22.4974 0.013101 0.071011 -3.020363
2011-08-19 07:57:57 51°18.451 3°2.504 22.5068 0.013101 0.07101 -3.020363
2011-08-19 07:58:02 51°18.457 3°2.527 22.498 0.013101 0.07101 -3.020363
2011-08-19 07:58:07 51°18.462 3°2.55 22.5107 0.013101 0.071011 -3.020363
2011-08-19 07:58:12 51°18.468 3°2.573 22.5122 0.013101 0.07101 -3.020363
2011-08-19 07:58:17 51°18.474 3°2.595 22.5207 0.013101 0.07101 -3.020363
2011-08-19 07:58:22 51°18.48 3°2.618 22.5088 0.013101 0.07101 -3.020363
2011-08-19 07:58:27 51°18.487 3°2.64 22.5028 0.013101 0.07101 -3.020363
2011-08-19 07:58:32 51°18.493 3°2.663 22.4991 0.013101 0.07101 -3.020363
2011-08-19 07:58:37 51°18.5 3°2.685 22.5167 0.013101 0.07101 -3.020363
2011-08-19 07:58:42 51°18.506 3°2.707 22.5004 0.013101 0.07101 -3.020363
2011-08-19 07:58:47 51°18.512 3°2.729 22.4988 0.013101 0.07101 -3.020363
2011-08-19 07:58:52 51°18.518 3°2.752 22.5071 0.013101 0.07101 -3.020363
2011-08-19 07:58:57 51°18.525 3°2.774 22.524 0.013101 0.07101 -3.020363
2011-08-19 07:59:02 51°18.531 3°2.797 22.5369 0.013101 0.07101 -3.020363
2011-08-19 07:59:07 51°18.537 3°2.818 22.529 0.013101 0.07101 -3.020363
2011-08-19 07:59:12 51°18.544 3°2.84 22.5388 0.013101 0.071011 -3.020363
2011-08-19 07:59:17 51°18.552 3°2.862 22.5251 0.013101 0.071011 -3.020363
2011-08-19 07:59:22 51°18.559 3°2.883 22.527 0.013101 0.071011 -3.020363
2011-08-19 07:59:27 51°18.567 3°2.903 22.5288 0.013101 0.071011 -3.020363
2011-08-19 07:59:32 51°18.575 3°2.925 22.5363 0.013101 0.071011 -3.020363
2011-08-19 07:59:37 51°18.583 3°2.945 22.5117 0.013101 0.071011 -3.020363
2011-08-19 07:59:41 51°18.589 3°2.961 22.5046 0.013101 0.071011 -3.020363
2011-08-19 07:59:47 51°18.6 3°2.986 22.5175 0.013101 0.071011 -3.020363
2011-08-19 07:59:52 51°18.608 3°3.007 22.526 0.013101 0.071011 -3.020363
2011-08-19 07:59:57 51°18.615 3°3.028 22.501 0.013101 0.071012 -3.020363
2011-08-19 08:00:02 51°18.622 3°3.05 22.528 0.013101 0.071012 -3.020363
2011-08-19 08:00:07 51°18.629 3°3.072 22.5374 0.013101 0.071012 -3.020363
2011-08-19 08:00:12 51°18.636 3°3.093 22.5182 0.013101 0.071012 -3.020363
2011-08-19 08:00:17 51°18.644 3°3.114 22.5406 0.013101 0.071012 -3.020363
2011-08-19 08:00:22 51°18.651 3°3.136 22.5434 0.013101 0.071013 -3.020363
2011-08-19 08:00:27 51°18.658 3°3.156 22.5135 0.013101 0.071012 -3.020363
2011-08-19 08:00:32 51°18.666 3°3.177 22.5374 0.013101 0.071013 -3.020363
2011-08-19 08:00:37 51°18.674 3°3.198 22.519 0.013101 0.071013 -3.020363
2011-08-19 08:00:42 51°18.682 3°3.219 22.534 0.013101 0.071013 -3.020363
2011-08-19 08:00:47 51°18.69 3°3.24 22.5258 0.013101 0.071013 -3.020363
2011-08-19 08:00:52 51°18.698 3°3.26 22.5414 0.013101 0.071014 -3.020363
2011-08-19 08:00:57 51°18.706 3°3.281 22.5232 0.013101 0.071014 -3.020363
2011-08-19 08:01:02 51°18.714 3°3.302 22.5377 0.013101 0.071014 -3.020363
2011-08-19 08:01:07 51°18.722 3°3.323 22.5349 0.013101 0.071014 -3.020363
2011-08-19 08:01:12 51°18.73 3°3.343 22.5313 0.013101 0.071015 -3.020363
2011-08-19 08:01:17 51°18.738 3°3.364 22.5369 0.013101 0.071015 -3.020363
2011-08-19 08:01:22 51°18.746 3°3.384 22.5285 0.013101 0.071015 -3.020363
2011-08-19 08:01:27 51°18.754 3°3.405 22.5169 0.013101 0.071015 -3.020363
2011-08-19 08:01:32 51°18.762 3°3.426 22.5191 0.013101 0.071015 -3.020363
2011-08-19 08:01:37 51°18.769 3°3.447 22.5083 0.012998 0.070492 -3.020363
2011-08-19 08:01:42 51°18.776 3°3.469 22.5403 0.013101 0.071015 -3.020363
2011-08-19 08:01:47 51°18.782 3°3.492 22.5624 0.013101 0.071015 -3.020363
2011-08-19 08:01:52 51°18.789 3°3.513 22.5386 0.013101 0.071016 -3.020363
2011-08-19 08:01:57 51°18.795 3°3.536 22.5475 0.012998 0.070493 -3.020363
2011-08-19 08:02:02 51°18.801 3°3.558 22.5457 0.012998 0.070493 -3.020363
2011-08-19 08:02:07 51°18.807 3°3.58 22.5379 0.012998 0.070493 -3.020363
2011-08-19 08:02:12 51°18.813 3°3.602 22.5472 0.013101 0.071017 -3.020363
2011-08-19 08:02:17 51°18.82 3°3.625 22.5613 0.013101 0.071017 -3.020363
2011-08-19 08:02:22 51°18.827 3°3.646 22.5419 0.012998 0.070494 -3.020363
2011-08-19 08:02:27 51°18.834 3°3.668 22.5532 0.012998 0.070494 -3.020363
2011-08-19 08:02:32 51°18.841 3°3.689 22.5234 0.012998 0.070495 -3.020363
2011-08-19 08:02:37 51°18.848 3°3.711 22.5402 0.012998 0.070495 -3.020363
2011-08-19 08:02:42 51°18.856 3°3.732 22.5576 0.012998 0.070495 -3.020363
2011-08-19 08:02:47 51°18.863 3°3.753 22.5525 0.012998 0.070495 -3.020363
2011-08-19 08:02:52 51°18.871 3°3.774 22.5575 0.013101 0.071019 -3.020363
2011-08-19 08:02:57 51°18.879 3°3.795 22.5633 0.012998 0.070496 -3.020363
2011-08-19 08:03:02 51°18.887 3°3.815 22.5529 0.013101 0.07102 -3.020363
2011-08-19 08:03:07 51°18.896 3°3.835 22.556 0.012998 0.070497 -3.020363
2011-08-19 08:03:12 51°18.903 3°3.855 22.5559 0.013101 0.07102 -3.020363
2011-08-19 08:03:17 51°18.912 3°3.876 22.5664 0.013101 0.07102 -3.020363
2011-08-19 08:03:22 51°18.92 3°3.896 22.5472 0.012998 0.070498 -3.020363
2011-08-19 08:03:27 51°18.929 3°3.916 22.5556 0.013101 0.071021 -3.020363
2011-08-19 08:03:32 51°18.938 3°3.936 22.5613 0.012998 0.070498 -3.020363
2011-08-19 08:03:37 51°18.946 3°3.956 22.5592 0.012998 0.070498 -3.020363
2011-08-19 08:03:42 51°18.955 3°3.975 22.5864 0.013101 0.071022 -3.020363
2011-08-19 08:03:47 51°18.964 3°3.994 22.5733 0.013101 0.071022 -3.020363
2011-08-19 08:03:52 51°18.975 3°4.012 22.5738 0.012998 0.070499 -3.020363
2011-08-19 08:03:57 51°18.985 3°4.029 22.5477 0.012998 0.0705 -3.020363
2011-08-19 08:04:02 51°18.996 3°4.046 22.5689 0.012998 0.0705 -3.020363
2011-08-19 08:04:07 51°19.007 3°4.063 22.5667 0.012998 0.0705 -3.020363
2011-08-19 08:04:12 51°19.018 3°4.079 22.571 0.012998 0.070501 -3.020363
2011-08-19 08:04:17 51°19.029 3°4.095 22.5598 0.012998 0.070501 -3.020363
2011-08-19 08:04:21 51°19.037 3°4.109 22.5636 0.012998 0.070502 -3.020363
2011-08-19 08:04:27 51°19.051 3°4.129 22.5531 0.012998 0.070502 -3.020363
2011-08-19 08:04:32 51°19.061 3°4.145 22.5648 0.012998 0.070502 -3.020363
2011-08-19 08:04:37 51°19.072 3°4.162 22.5519 0.012998 0.070503 -3.020363
2011-08-19 08:04:42 51°19.083 3°4.179 22.5499 0.012998 0.070503 -3.020363
2011-08-19 08:04:47 51°19.093 3°4.197 22.5486 0.012998 0.070503 -3.020363
2011-08-19 08:04:52 51°19.104 3°4.214 22.5631 0.012998 0.070503 -3.020363
2011-08-19 08:04:57 51°19.113 3°4.233 22.5656 0.012998 0.070504 -3.020363
2011-08-19 08:05:02 51°19.123 3°4.251 22.5776 0.012998 0.070504 -3.020363
2011-08-19 08:05:07 51°19.132 3°4.271 22.5491 0.012998 0.070504 -3.020363
2011-08-19 08:05:13 51°19.143 3°4.293 22.5659 0.012998 0.070505 -3.020363
2011-08-19 08:05:17 51°19.15 3°4.309 22.5904 0.012998 0.070505 -3.020363
2011-08-19 08:05:22 51°19.16 3°4.328 22.5796 0.012998 0.070505 -3.020363
2011-08-19 08:05:27 51°19.169 3°4.347 22.5938 0.012998 0.070506 -3.020363
2011-08-19 08:05:32 51°19.179 3°4.365 22.5813 0.012998 0.070505 -3.020363
2011-08-19 08:05:37 51°19.19 3°4.383 22.5791 0.012998 0.070507 -3.020363
2011-08-19 08:05:42 51°19.2 3°4.4 22.5823 0.012998 0.070507 -3.020363
2011-08-19 08:05:47 51°19.211 3°4.416 22.5805 0.012998 0.070507 -3.020363
2011-08-19 08:05:52 51°19.222 3°4.433 22.5826 0.012998 0.070507 -3.020363
2011-08-19 08:05:57 51°19.233 3°4.449 22.5728 0.012998 0.070508 -3.020363
2011-08-19 08:06:02 51°19.245 3°4.465 22.5956 0.012998 0.070508 -3.020363
2011-08-19 08:06:07 51°19.256 3°4.482 22.575 0.012998 0.070509 -3.020363
2011-08-19 08:06:12 51°19.268 3°4.497 22.5822 0.012998 0.070509 -3.020363
2011-08-19 08:06:17 51°19.279 3°4.513 22.5814 0.012998 0.070509 -3.020363
2011-08-19 08:06:22 51°19.291 3°4.528 22.5829 0.012998 0.070509 -3.020363
2011-08-19 08:06:27 51°19.302 3°4.544 22.5944 0.012998 0.070509 -3.020363
2011-08-19 08:06:32 51°19.314 3°4.56 22.5842 0.012998 0.070509 -3.020363
2011-08-19 08:06:37 51°19.326 3°4.575 22.5778 0.012998 0.07051 -3.020363
2011-08-19 08:06:41 51°19.335 3°4.588 22.5768 0.012998 0.07051 -3.020363
2011-08-19 08:06:47 51°19.348 3°4.607 22.5856 0.012998 0.07051 -3.020363
2011-08-19 08:06:52 51°19.36 3°4.623 22.565 0.012998 0.070511 -3.020363
2011-08-19 08:06:57 51°19.371 3°4.639 22.5928 0.012998 0.070512 -3.020363
2011-08-19 08:07:02 51°19.382 3°4.655 22.5882 0.012998 0.070511 -3.020363
2011-08-19 08:07:07 51°19.393 3°4.671 22.5779 0.012998 0.070512 -3.020363
2011-08-19 08:07:12 51°19.404 3°4.688 22.5916 0.012998 0.070513 -3.020363
2011-08-19 08:07:17 51°19.415 3°4.704 22.5898 0.012998 0.070513 -3.020363
2011-08-19 08:07:22 51°19.426 3°4.72 22.5882 0.012998 0.070513 -3.020363
2011-08-19 08:07:27 51°19.437 3°4.737 22.6008 0.012998 0.070513 -3.020363
2011-08-19 08:07:32 51°19.448 3°4.752 22.5873 0.012998 0.070514 -3.020363
2011-08-19 08:07:37 51°19.459 3°4.769 22.6022 0.012998 0.070514 -3.020363
2011-08-19 08:07:42 51°19.47 3°4.785 22.5765 0.012998 0.070515 -3.020363
2011-08-19 08:07:47 51°19.482 3°4.801 22.5899 0.012998 0.070515 -3.020363
2011-08-19 08:07:52 51°19.492 3°4.817 22.5921 0.012998 0.070516 -3.020363
2011-08-19 08:07:57 51°19.503 3°4.834 22.6055 0.012998 0.070516 -3.020363
2011-08-19 08:08:02 51°19.514 3°4.85 22.5992 0.012998 0.070516 -3.020363
2011-08-19 08:08:07 51°19.525 3°4.866 22.5889 0.012998 0.070516 -3.020363
2011-08-19 08:08:12 51°19.537 3°4.882 22.5988 0.012998 0.070517 -3.020363
2011-08-19 08:08:17 51°19.548 3°4.899 22.6021 0.012998 0.070517 -3.020363
2011-08-19 08:08:22 51°19.559 3°4.915 22.602 0.012998 0.070518 -3.020363
2011-08-19 08:08:27 51°19.569 3°4.931 22.5874 0.012998 0.070518 -3.020363
2011-08-19 08:08:32 51°19.58 3°4.948 22.5697 0.012998 0.070518 -3.020363
2011-08-19 08:08:37 51°19.59 3°4.966 22.5927 0.012998 0.070519 -3.020363
2011-08-19 08:08:42 51°19.599 3°4.984 22.6071 0.012998 0.070519 -3.020363
2011-08-19 08:08:47 51°19.608 3°5.004 22.6186 0.012998 0.070519 -3.020363
2011-08-19 08:08:52 51°19.618 3°5.021 22.6162 0.012998 0.070519 -3.020363
2011-08-19 08:08:57 51°19.627 3°5.04 22.6068 0.012998 0.07052 -3.020363
2011-08-19 08:09:01 51°19.635 3°5.054 22.6001 0.012998 0.07052 -3.020363
2011-08-19 08:09:07 51°19.646 3°5.077 22.6248 0.012998 0.070521 -3.020363
2011-08-19 08:09:12 51°19.656 3°5.096 22.606 0.012998 0.070521 -3.020363
2011-08-19 08:09:17 51°19.665 3°5.114 22.6257 0.012998 0.070521 -3.020363
2011-08-19 08:09:22 51°19.674 3°5.133 22.5889 0.012998 0.070521 -3.020363
2011-08-19 08:09:27 51°19.684 3°5.151 22.6188 0.012998 0.070522 -3.020363
2011-08-19 08:09:33 51°19.695 3°5.173 22.6188 0.012998 0.070522 -3.020363
2011-08-19 08:09:37 51°19.703 3°5.188 22.6321 0.012998 0.070523 -3.020363
2011-08-19 08:09:42 51°19.712 3°5.207 22.6135 0.012998 0.070523 -3.020363
2011-08-19 08:09:47 51°19.722 3°5.225 22.6277 0.012998 0.070523 -3.020363
2011-08-19 08:09:52 51°19.732 3°5.243 22.6235 0.012998 0.070524 -3.020363
2011-08-19 08:09:57 51°19.742 3°5.261 22.6062 0.012998 0.070524 -3.020363
2011-08-19 08:10:02 51°19.753 3°5.278 22.6202 0.012998 0.070525 -3.020363
2011-08-19 08:10:07 51°19.763 3°5.296 22.6194 0.012998 0.070525 -3.020363
2011-08-19 08:10:12 51°19.773 3°5.313 22.6056 0.012998 0.070526 -3.020363
2011-08-19 08:10:17 51°19.783 3°5.331 22.5887 0.012998 0.070526 -3.020363
2011-08-19 08:10:22 51°19.793 3°5.349 22.6118 0.012998 0.070527 -3.020363
2011-08-19 08:10:27 51°19.802 3°5.368 22.6036 0.012998 0.070527 -3.020363
2011-08-19 08:10:32 51°19.811 3°5.387 22.6137 0.012998 0.070527 -3.020363
2011-08-19 08:10:37 51°19.819 3°5.408 22.6019 0.012998 0.070528 -3.020363
2011-08-19 08:10:42 51°19.828 3°5.427 22.6071 0.012998 0.070528 -3.020363
2011-08-19 08:10:47 51°19.834 3°5.449 22.6075 0.012998 0.070528 -3.020363
2011-08-19 08:10:52 51°19.842 3°5.47 22.6307 0.012998 0.070529 -3.020363
2011-08-19 08:10:57 51°19.847 3°5.492 22.6345 0.012998 0.070529 -3.020363
2011-08-19 08:11:02 51°19.854 3°5.513 22.6215 0.012998 0.07053 -3.020363
2011-08-19 08:11:07 51°19.861 3°5.535 22.6332 0.012998 0.07053 -3.020363
2011-08-19 08:11:12 51°19.868 3°5.556 22.6414 0.012998 0.07053 -3.020363
2011-08-19 08:11:17 51°19.875 3°5.576 22.6401 0.012998 0.07053 -3.020363
2011-08-19 08:11:21 51°19.881 3°5.593 22.6357 0.012998 0.07053 -3.020363
2011-08-19 08:11:27 51°19.89 3°5.618 22.6271 0.012998 0.070531 -3.020363
2011-08-19 08:11:32 51°19.898 3°5.638 22.6465 0.012998 0.070531 -3.020363
2011-08-19 08:11:37 51°19.906 3°5.658 22.6254 0.012998 0.070533 -3.020363
2011-08-19 08:11:41 51°19.912 3°5.674 22.642 0.012998 0.070533 -3.020363
2011-08-19 08:11:47 51°19.922 3°5.698 22.6339 0.012998 0.070533 -3.020363
2011-08-19 08:11:52 51°19.932 3°5.717 22.6425 0.012998 0.070534 -3.020363
2011-08-19 08:11:57 51°19.941 3°5.736 22.6293 0.012998 0.070534 -3.020363
2011-08-19 08:12:02 51°19.95 3°5.755 22.6317 0.012998 0.070534 -3.020363
2011-08-19 08:12:07 51°19.959 3°5.774 22.6133 0.012998 0.070535 -3.020363
2011-08-19 08:12:12 51°19.968 3°5.793 22.6326 0.012998 0.070536 -3.020363
2011-08-19 08:12:17 51°19.977 3°5.812 22.6356 0.012998 0.070536 -3.020363
2011-08-19 08:12:22 51°19.986 3°5.832 22.6264 0.012998 0.070536 -3.020363
2011-08-19 08:12:27 51°19.994 3°5.852 22.6312 0.012998 0.070537 -3.020363
2011-08-19 08:12:32 51°20.003 3°5.871 22.6334 0.012998 0.070537 -3.020363
2011-08-19 08:12:37 51°20.011 3°5.891 22.6334 0.012998 0.070538 -3.020363
2011-08-19 08:12:42 51°20.019 3°5.912 22.6277 0.012998 0.070538 -3.020363
2011-08-19 08:12:47 51°20.027 3°5.932 22.6304 0.012998 0.070538 -3.020363
2011-08-19 08:12:52 51°20.034 3°5.952 22.6529 0.012998 0.070539 -3.020363
2011-08-19 08:12:57 51°20.042 3°5.973 22.6475 0.012998 0.070539 -3.020363
2011-08-19 08:13:02 51°20.05 3°5.993 22.6475 0.012998 0.07054 -3.020363
2011-08-19 08:13:07 51°20.058 3°6.013 22.647 0.012998 0.07054 -3.020363
2011-08-19 08:13:12 51°20.066 3°6.034 22.6321 0.012998 0.070541 -3.020363
2011-08-19 08:13:17 51°20.074 3°6.054 22.6491 0.012998 0.070541 -3.020363
2011-08-19 08:13:21 51°20.08 3°6.071 22.6472 0.012998 0.070541 -3.020363
2011-08-19 08:13:27 51°20.09 3°6.094 22.6538 0.012998 0.070542 -3.020363
2011-08-19 08:13:32 51°20.099 3°6.114 22.6436 0.012998 0.070542 -3.020363
2011-08-19 08:13:37 51°20.108 3°6.133 22.6637 0.012998 0.070542 -3.020363
2011-08-19 08:13:42 51°20.117 3°6.153 22.6537 0.012998 0.070543 -3.020363
2011-08-19 08:13:47 51°20.126 3°6.171 22.6463 0.012998 0.070543 -3.020363
2011-08-19 08:13:52 51°20.135 3°6.19 22.6542 0.012998 0.070544 -3.020363
2011-08-19 08:13:57 51°20.145 3°6.209 22.657 0.012998 0.070544 -3.020363
2011-08-19 08:14:02 51°20.154 3°6.228 22.6379 0.012998 0.070545 -3.020363
2011-08-19 08:14:07 51°20.164 3°6.246 22.6639 0.012998 0.070545 -3.020363
2011-08-19 08:14:12 51°20.173 3°6.265 22.6558 0.012998 0.070546 -3.020363
2011-08-19 08:14:17 51°20.183 3°6.283 22.6444 0.012998 0.070546 -3.020363
2011-08-19 08:14:22 51°20.192 3°6.303 22.6488 0.012998 0.070547 -3.020363
2011-08-19 08:14:27 51°20.202 3°6.32 22.6532 0.012998 0.070546 -3.020363
2011-08-19 08:14:32 51°20.211 3°6.339 22.6562 0.012998 0.070548 -3.020363
2011-08-19 08:14:37 51°20.221 3°6.358 22.6517 0.012998 0.070548 -3.020363
2011-08-19 08:14:42 51°20.23 3°6.377 22.6666 0.012998 0.070549 -3.020363
2011-08-19 08:14:47 51°20.239 3°6.396 22.6572 0.012998 0.070549 -3.020363
2011-08-19 08:14:52 51°20.249 3°6.414 22.6579 0.012998 0.070549 -3.020363
2011-08-19 08:14:57 51°20.258 3°6.433 22.6754 0.012998 0.070549 -3.020363
2011-08-19 08:15:02 51°20.267 3°6.452 22.6659 0.012998 0.07055 -3.020363
2011-08-19 08:15:07 51°20.277 3°6.471 22.6476 0.012998 0.07055 -3.020363
2011-08-19 08:15:12 51°20.286 3°6.489 22.6631 0.012998 0.070551 -3.020363
2011-08-19 08:15:17 51°20.295 3°6.508 22.6642 0.012998 0.070551 -3.020363
2011-08-19 08:15:22 51°20.305 3°6.527 22.6689 0.012998 0.070551 -3.020363
2011-08-19 08:15:27 51°20.314 3°6.546 22.6652 0.012998 0.070552 -3.020363
2011-08-19 08:15:32 51°20.323 3°6.564 22.6705 0.012998 0.070552 -3.020363
2011-08-19 08:15:37 51°20.331 3°6.584 22.6478 0.012998 0.070552 -3.020363
2011-08-19 08:15:42 51°20.34 3°6.603 22.6669 0.012998 0.070552 -3.020363
2011-08-19 08:15:47 51°20.349 3°6.623 22.6598 0.012998 0.070552 -3.020363
2011-08-19 08:15:52 51°20.358 3°6.642 22.6728 0.012998 0.070552 -3.020363
2011-08-19 08:15:57 51°20.366 3°6.662 22.676 0.012998 0.070553 -3.020363
2011-08-19 08:16:02 51°20.374 3°6.681 22.6631 0.012998 0.070554 -3.020363
2011-08-19 08:16:07 51°20.383 3°6.701 22.6783 0.012998 0.070554 -3.020363
2011-08-19 08:16:12 51°20.391 3°6.721 22.6884 0.012998 0.070555 -3.020363
2011-08-19 08:16:17 51°20.4 3°6.741 22.662 0.012998 0.070555 -3.020363
2011-08-19 08:16:22 51°20.408 3°6.76 22.6807 0.012998 0.070555 -3.020363
2011-08-19 08:16:27 51°20.417 3°6.779 22.6598 0.012998 0.070556 -3.020363
2011-08-19 08:16:32 51°20.425 3°6.799 22.6871 0.012998 0.070557 -3.020363
2011-08-19 08:16:37 51°20.434 3°6.818 22.6773 0.012998 0.070557 -3.020363
2011-08-19 08:16:42 51°20.443 3°6.837 22.6804 0.012998 0.070557 -3.020363
2011-08-19 08:16:47 51°20.452 3°6.856 22.6615 0.012998 0.070557 -3.020363
2011-08-19 08:16:52 51°20.461 3°6.874 22.6856 0.012998 0.070558 -3.020363
2011-08-19 08:16:57 51°20.47 3°6.893 22.6627 0.012998 0.070558 -3.020363
2011-08-19 08:17:02 51°20.479 3°6.911 22.6729 0.012998 0.070559 -3.020363
2011-08-19 08:17:07 51°20.488 3°6.93 22.6882 0.012998 0.07056 -3.020363
2011-08-19 08:17:12 51°20.497 3°6.949 22.6938 0.012998 0.07056 -3.020363
2011-08-19 08:17:17 51°20.506 3°6.967 22.6719 0.012998 0.07056 -3.020363
2011-08-19 08:17:22 51°20.515 3°6.986 22.6706 0.012998 0.07056 -3.020363
2011-08-19 08:17:27 51°20.524 3°7.005 22.6889 0.012998 0.070561 -3.020363
2011-08-19 08:17:32 51°20.533 3°7.024 22.682 0.012998 0.070561 -3.020363
2011-08-19 08:17:37 51°20.541 3°7.043 22.6756 0.012998 0.070562 -3.020363
2011-08-19 08:17:42 51°20.551 3°7.062 22.6781 0.012998 0.070562 -3.020363
2011-08-19 08:17:47 51°20.559 3°7.081 22.6874 0.012998 0.070562 -3.020363
2011-08-19 08:17:52 51°20.568 3°7.1 22.67 0.012998 0.070562 -3.020363
2011-08-19 08:17:57 51°20.577 3°7.119 22.691 0.012998 0.070563 -3.020363
2011-08-19 08:18:02 51°20.585 3°7.139 22.6834 0.012998 0.070564 -3.020363
2011-08-19 08:18:07 51°20.594 3°7.158 22.6871 0.012998 0.070564 -3.020363
2011-08-19 08:18:12 51°20.602 3°7.177 22.6855 0.012998 0.070564 -3.020363
2011-08-19 08:18:17 51°20.61 3°7.197 22.6902 0.012998 0.070564 -3.020363
2011-08-19 08:18:22 51°20.619 3°7.215 22.6897 0.012998 0.070565 -3.020363
2011-08-19 08:18:27 51°20.628 3°7.235 22.677 0.012998 0.070566 -3.020363
2011-08-19 08:18:32 51°20.637 3°7.254 22.6874 0.012998 0.070566 -3.020363
2011-08-19 08:18:37 51°20.646 3°7.272 22.6729 0.012998 0.070566 -3.020363
2011-08-19 08:18:42 51°20.654 3°7.292 22.6886 0.012998 0.070567 -3.020363
2011-08-19 08:18:47 51°20.663 3°7.311 22.6874 0.012998 0.070567 -3.020363
2011-08-19 08:18:52 51°20.671 3°7.331 22.6938 0.012998 0.070567 -3.020363
2011-08-19 08:18:57 51°20.68 3°7.35 22.6835 0.012998 0.070568 -3.020363
2011-08-19 08:19:02 51°20.688 3°7.37 22.686 0.012998 0.070568 -3.020363
2011-08-19 08:19:07 51°20.696 3°7.39 22.7117 0.012998 0.070569 -3.020363
2011-08-19 08:19:12 51°20.704 3°7.41 22.7085 0.012998 0.070569 -3.020363
2011-08-19 08:19:17 51°20.713 3°7.428 22.7036 0.012998 0.070569 -3.020363
2011-08-19 08:19:22 51°20.722 3°7.448 22.6825 0.012998 0.07057 -3.020363
2011-08-19 08:19:27 51°20.732 3°7.466 22.703 0.012998 0.07057 -3.020363
2011-08-19 08:19:32 51°20.741 3°7.484 22.708 0.012998 0.07057 -3.020363
2011-08-19 08:19:37 51°20.752 3°7.502 22.725 0.012998 0.070571 -3.020363
2011-08-19 08:19:42 51°20.762 3°7.518 22.6998 0.012998 0.070571 -3.020363
2011-08-19 08:19:47 51°20.773 3°7.534 22.7267 0.012998 0.070571 -3.020363
2011-08-19 08:19:52 51°20.784 3°7.55 22.6999 0.012998 0.070572 -3.020363
2011-08-19 08:19:57 51°20.796 3°7.565 22.7116 0.012998 0.070572 -3.020363
2011-08-19 08:20:02 51°20.808 3°7.581 22.7011 0.012998 0.070573 -3.020363
2011-08-19 08:20:07 51°20.82 3°7.594 22.6925 0.012998 0.070574 -3.020363
2011-08-19 08:20:12 51°20.833 3°7.607 22.7117 0.012998 0.070574 -3.020363
2011-08-19 08:20:17 51°20.846 3°7.621 22.7163 0.012998 0.070574 -3.020363
2011-08-19 08:20:22 51°20.859 3°7.634 22.7158 0.012998 0.070574 -3.020363
2011-08-19 08:20:27 51°20.872 3°7.646 22.7126 0.012998 0.070575 -3.020363
2011-08-19 08:20:32 51°20.885 3°7.658 22.7191 0.012998 0.070575 -3.020363
2011-08-19 08:20:37 51°20.898 3°7.669 22.7001 0.012998 0.070575 -3.020363
2011-08-19 08:20:42 51°20.912 3°7.678 22.7276 0.012998 0.070575 -3.020363
2011-08-19 08:20:47 51°20.926 3°7.689 22.7134 0.012998 0.070575 -3.020363
2011-08-19 08:20:52 51°20.94 3°7.698 22.724 0.012998 0.070575 -3.020363
2011-08-19 08:20:57 51°20.954 3°7.707 22.7161 0.012998 0.070576 -3.020363
2011-08-19 08:21:02 51°20.968 3°7.716 22.7366 0.012998 0.070576 -3.020363
2011-08-19 08:21:07 51°20.982 3°7.726 22.7309 0.012998 0.070576 -3.020363
2011-08-19 08:21:12 51°20.996 3°7.733 22.728 0.012998 0.070577 -3.020363
2011-08-19 08:21:17 51°21.011 3°7.741 22.708 0.012998 0.070577 -3.020363
2011-08-19 08:21:22 51°21.026 3°7.747 22.7291 0.012998 0.070577 -3.020363
2011-08-19 08:21:27 51°21.04 3°7.753 22.7264 0.012998 0.070578 -3.020363
2011-08-19 08:21:32 51°21.055 3°7.758 22.7166 0.012998 0.070578 -3.020363
2011-08-19 08:21:37 51°21.07 3°7.764 22.7306 0.012998 0.070578 -3.020363
2011-08-19 08:21:42 51°21.085 3°7.77 22.7148 0.012998 0.070579 -3.020363
2011-08-19 08:21:47 51°21.1 3°7.776 22.7343 0.012998 0.070579 -3.020363
2011-08-19 08:21:52 51°21.115 3°7.781 22.7385 0.012998 0.070579 -3.020363
2011-08-19 08:21:57 51°21.13 3°7.787 22.7118 0.012998 0.070579 -3.020363
2011-08-19 08:22:02 51°21.145 3°7.793 22.7395 0.012998 0.07058 -3.020363
2011-08-19 08:22:07 51°21.16 3°7.798 22.7265 0.012998 0.07058 -3.020363
2011-08-19 08:22:12 51°21.175 3°7.803 22.7284 0.012998 0.070581 -3.020363
2011-08-19 08:22:17 51°21.19 3°7.809 22.7256 0.012998 0.070581 -3.020363
2011-08-19 08:22:22 51°21.205 3°7.814 22.7351 0.012998 0.070581 -3.020363
2011-08-19 08:22:27 51°21.22 3°7.819 22.7294 0.012998 0.070581 -3.020363
2011-08-19 08:22:32 51°21.235 3°7.825 22.745 0.012998 0.070582 -3.020363
2011-08-19 08:22:37 51°21.25 3°7.83 22.7296 0.012998 0.070582 -3.020363
2011-08-19 08:22:42 51°21.266 3°7.836 22.7387 0.012998 0.070583 -3.020363
2011-08-19 08:22:47 51°21.281 3°7.841 22.7196 0.012998 0.070583 -3.020363
2011-08-19 08:22:53 51°21.299 3°7.847 22.731 0.012998 0.070583 -3.020363
2011-08-19 08:22:57 51°21.31 3°7.851 22.7287 0.012998 0.070584 -3.020363
2011-08-19 08:23:02 51°21.324 3°7.857 22.7271 0.012998 0.070584 -3.020363
2011-08-19 08:23:07 51°21.338 3°7.863 22.7295 0.012998 0.070585 -3.020363
2011-08-19 08:23:12 51°21.35 3°7.869 22.7217 0.012998 0.070585 -3.020363
2011-08-19 08:23:17 51°21.363 3°7.874 22.7545 0.012998 0.070585 -3.020363
2011-08-19 08:23:22 51°21.374 3°7.879 22.7462 0.012998 0.070586 -3.020363
2011-08-19 08:23:27 51°21.385 3°7.883 22.7502 0.012998 0.070586 -3.020363
2011-08-19 08:23:32 51°21.395 3°7.886 22.7523 0.012998 0.070587 -3.020363
2011-08-19 08:23:37 51°21.405 3°7.889 22.7777 0.012998 0.070588 -3.020363
2011-08-19 08:23:42 51°21.414 3°7.89 22.7888 0.012998 0.070588 -3.020363
2011-08-19 08:23:47 51°21.423 3°7.889 22.7857 0.012998 0.070588 -3.020363
2011-08-19 08:23:52 51°21.432 3°7.885 22.7696 0.012998 0.070589 -3.020363
2011-08-19 08:23:57 51°21.439 3°7.88 22.7907 0.012998 0.07059 -3.020363
2011-08-19 08:24:02 51°21.446 3°7.874 22.7933 0.012998 0.07059 -3.020363
2011-08-19 08:24:07 51°21.452 3°7.866 22.7655 0.012998 0.070591 -3.020363
2011-08-19 08:24:12 51°21.458 3°7.858 22.7647 0.012998 0.070592 -3.020363
2011-08-19 08:24:17 51°21.463 3°7.849 22.7777 0.012998 0.070592 -3.020363
2011-08-19 08:24:22 51°21.467 3°7.839 22.774 0.012998 0.070592 -3.020363
2011-08-19 08:24:27 51°21.471 3°7.829 22.7835 0.012998 0.070593 -3.020363
2011-08-19 08:24:32 51°21.474 3°7.817 22.766 0.012998 0.070594 -3.020363
2011-08-19 08:24:37 51°21.476 3°7.805 22.7564 0.012998 0.070594 -3.020363
2011-08-19 08:24:42 51°21.477 3°7.793 22.7724 0.012998 0.070595 -3.020363
2011-08-19 08:24:47 51°21.478 3°7.782 22.7497 0.012998 0.070595 -3.020363
2011-08-19 08:24:52 51°21.479 3°7.77 22.7516 0.012998 0.070595 -3.020363
2011-08-19 08:24:57 51°21.479 3°7.76 22.7525 0.012998 0.070596 -3.020363
2011-08-19 08:25:02 51°21.479 3°7.749 22.7563 0.012998 0.070596 -3.020363
2011-08-19 08:25:07 51°21.479 3°7.738 22.7644 0.012998 0.070597 -3.020363
2011-08-19 08:25:12 51°21.478 3°7.728 22.761 0.012998 0.070598 -3.020363
2011-08-19 08:25:17 51°21.477 3°7.719 22.7533 0.012998 0.070598 -3.020363
2011-08-19 08:25:22 51°21.476 3°7.708 22.7585 0.012998 0.070598 -3.020363
2011-08-19 08:25:27 51°21.475 3°7.699 22.7528 0.012998 0.070598 -3.020363
2011-08-19 08:25:32 51°21.474 3°7.69 22.7574 0.012998 0.070599 -3.020363
2011-08-19 08:25:37 51°21.472 3°7.681 22.7667 0.012998 0.070599 -3.020363
2011-08-19 08:25:42 51°21.471 3°7.672 22.7633 0.012998 0.0706 -3.020363
2011-08-19 08:25:47 51°21.469 3°7.663 22.766 0.012998 0.0706 -3.020363
2011-08-19 08:25:52 51°21.467 3°7.655 22.7648 0.012998 0.0706 -3.020363
2011-08-19 08:25:57 51°21.465 3°7.647 22.7665 0.012998 0.070601 -3.020363
2011-08-19 08:26:02 51°21.464 3°7.639 22.7622 0.012998 0.070601 -3.020363
2011-08-19 08:26:07 51°21.462 3°7.63 22.7635 0.012998 0.070601 -3.020363
2011-08-19 08:26:12 51°21.46 3°7.622 22.7569 0.012998 0.070602 -3.020363
2011-08-19 08:26:17 51°21.458 3°7.614 22.7614 0.012998 0.070602 -3.020363
2011-08-19 08:26:22 51°21.456 3°7.607 22.7602 0.012998 0.070603 -3.020363
2011-08-19 08:26:27 51°21.454 3°7.599 22.7619 0.012998 0.070604 -3.020363
2011-08-19 08:26:32 51°21.453 3°7.591 22.7717 0.012998 0.070604 -3.020363
2011-08-19 08:26:37 51°21.451 3°7.583 22.7737 0.012998 0.070604 -3.020363
2011-08-19 08:26:42 51°21.449 3°7.576 22.7744 0.012998 0.070606 -3.020363
2011-08-19 08:26:47 51°21.447 3°7.568 22.7744 0.012998 0.070606 -3.020363
2011-08-19 08:26:52 51°21.445 3°7.56 22.7715 0.012998 0.070606 -3.020363
2011-08-19 08:26:57 51°21.443 3°7.552 22.7639 0.012998 0.070607 -3.020363
2011-08-19 08:27:02 51°21.442 3°7.544 22.7685 0.012998 0.070607 -3.020363
2011-08-19 08:27:07 51°21.44 3°7.536 22.7694 0.012998 0.070608 -3.020363
2011-08-19 08:27:12 51°21.438 3°7.527 22.7574 0.012998 0.070608 -3.020363
2011-08-19 08:27:17 51°21.437 3°7.519 22.7734 0.012998 0.070608 -3.020363
2011-08-19 08:27:22 51°21.435 3°7.51 22.7644 0.012998 0.070609 -3.020363
2011-08-19 08:27:27 51°21.434 3°7.501 22.7621 0.012998 0.070609 -3.020363
2011-08-19 08:27:32 51°21.432 3°7.493 22.7735 0.012998 0.07061 -3.020363
2011-08-19 08:27:37 51°21.431 3°7.484 22.7668 0.012998 0.07061 -3.020363
2011-08-19 08:27:42 51°21.43 3°7.474 22.7572 0.012998 0.070611 -3.020363
2011-08-19 08:27:47 51°21.429 3°7.465 22.7752 0.012998 0.070611 -3.020363
2011-08-19 08:27:52 51°21.428 3°7.455 22.7641 0.012998 0.070611 -3.020363
2011-08-19 08:27:57 51°21.427 3°7.445 22.7666 0.012998 0.070612 -3.020363
2011-08-19 08:28:02 51°21.427 3°7.435 22.7624 0.012998 0.070613 -3.020363
2011-08-19 08:28:07 51°21.426 3°7.425 22.7768 0.012998 0.070614 -3.020363
2011-08-19 08:28:12 51°21.426 3°7.415 22.7791 0.012998 0.070614 -3.020363
2011-08-19 08:28:17 51°21.426 3°7.405 22.7775 0.012998 0.070614 -3.020363
2011-08-19 08:28:22 51°21.427 3°7.395 22.772 0.012998 0.070614 -3.020363
2011-08-19 08:28:27 51°21.428 3°7.385 22.767 0.012998 0.070615 -3.020363
2011-08-19 08:28:32 51°21.428 3°7.375 22.7764 0.012998 0.070616 -3.020363
2011-08-19 08:28:37 51°21.429 3°7.365 22.7783 0.012998 0.070617 -3.020363
2011-08-19 08:28:42 51°21.431 3°7.356 22.7974 0.012998 0.070617 -3.020363
2011-08-19 08:28:47 51°21.432 3°7.346 22.7857 0.012998 0.070617 -3.020363
2011-08-19 08:28:52 51°21.434 3°7.337 22.7888 0.012998 0.070618 -3.020363
2011-08-19 08:28:57 51°21.436 3°7.329 22.7898 0.012998 0.070618 -3.020363
2011-08-19 08:29:02 51°21.438 3°7.321 22.7745 0.012998 0.070619 -3.020363
2011-08-19 08:29:07 51°21.441 3°7.313 22.7788 0.012998 0.07062 -3.020363
2011-08-19 08:29:12 51°21.444 3°7.305 22.7861 0.012998 0.070621 -3.020363
2011-08-19 08:29:17 51°21.446 3°7.299 22.7847 0.012998 0.070621 -3.020363
2011-08-19 08:29:22 51°21.449 3°7.292 22.7961 0.012998 0.070621 -3.020363
2011-08-19 08:29:27 51°21.453 3°7.286 22.791 0.012998 0.070621 -3.020363
2011-08-19 08:29:32 51°21.456 3°7.281 22.8003 0.012998 0.070622 -3.020363
2011-08-19 08:29:37 51°21.46 3°7.276 22.804 0.012998 0.070622 -3.020363
2011-08-19 08:29:42 51°21.464 3°7.272 22.7927 0.012998 0.070623 -3.020363
2011-08-19 08:29:47 51°21.467 3°7.268 22.7881 0.012998 0.070623 -3.020363
2011-08-19 08:29:52 51°21.471 3°7.265 22.8076 0.012998 0.070624 -3.020363
2011-08-19 08:29:57 51°21.475 3°7.263 22.8019 0.012998 0.070624 -3.020363
2011-08-19 08:30:02 51°21.479 3°7.261 22.8021 0.012998 0.070625 -3.020363
2011-08-19 08:30:07 51°21.483 3°7.259 22.8147 0.012998 0.070625 -3.020363
2011-08-19 08:30:12 51°21.486 3°7.258 22.8138 0.012998 0.070627 -3.020363
2011-08-19 08:30:17 51°21.49 3°7.258 22.8022 0.012998 0.070627 -3.020363
2011-08-19 08:30:22 51°21.493 3°7.257 22.8063 0.012998 0.070627 -3.020363
2011-08-19 08:30:27 51°21.497 3°7.257 22.813 0.012998 0.070627 -3.020363
2011-08-19 08:30:32 51°21.501 3°7.257 22.7926 0.012998 0.070628 -3.020363
2011-08-19 08:30:37 51°21.504 3°7.258 22.8037 0.012998 0.070629 -3.020363
2011-08-19 08:30:42 51°21.508 3°7.258 22.8022 0.012998 0.070629 -3.020363
2011-08-19 08:30:47 51°21.512 3°7.258 22.8047 0.012998 0.070629 -3.020363
2011-08-19 08:30:52 51°21.516 3°7.258 22.8163 0.012998 0.07063 -3.020363
2011-08-19 08:30:57 51°21.52 3°7.259 22.8095 0.012998 0.07063 -3.020363
2011-08-19 08:31:02 51°21.525 3°7.26 22.818 0.012998 0.070631 -3.020363
2011-08-19 08:31:07 51°21.529 3°7.26 22.7942 0.012998 0.070632 -3.020363
2011-08-19 08:31:12 51°21.533 3°7.261 22.8003 0.012998 0.070632 -3.020363
2011-08-19 08:31:17 51°21.537 3°7.261 22.8004 0.012998 0.070632 -3.020363
2011-08-19 08:31:21 51°21.54 3°7.262 22.8029 0.012998 0.070633 -3.020363
2011-08-19 08:31:27 51°21.546 3°7.263 22.823 0.012998 0.070633 -3.020363
2011-08-19 08:31:32 51°21.55 3°7.264 22.8246 0.012998 0.070633 -3.020363
2011-08-19 08:31:37 51°21.554 3°7.264 22.817 0.012998 0.070634 -3.020363
2011-08-19 08:31:42 51°21.558 3°7.264 22.8021 0.012998 0.070634 -3.020363
2011-08-19 08:31:47 51°21.562 3°7.265 22.8213 0.012998 0.070634 -3.020363